     2.10           OBSERVATION DATA    G (GPS)             RINEX VERSION / TYPE
teqc 2000Feb29 simon 20020107 22:29:05UTC                   PGM / RUN BY / DATE
Linux 2.0.36|Pentium II|gcc|Linux|486/DX+                   COMMENT
BIT 2 OF LLI FLAGS DATA COLLECTED UNDER A/S CONDITION       COMMENT
SILV                                                        MARKER NAME
silv                                                        MARKER NUMBER
_BT -Unknown-                                               OBSERVER / AGENCY
488 ASHTECH Z-XII3 4J30                                     REC # / TYPE / VERS
009 ASH701933_M                                             ANT # / TYPE
 -2305712.0000 -4667045.0000  3674212.0000                  APPROX POSITION XYZ
        1.3494        0.0000        0.0000                  ANTENNA: DELTA H/E/N
     1     1                                                WAVELENGTH FACT L1/2
     7    L1    L2    C1    P1    P2    S1    S2            # / TYPES OF OBSERV
    30.0000                                                 INTERVAL
SNR is mapped to RINEX snr flag value [1-9]                 COMMENT
L1: 1 -> 1; 90 -> 5; 210 -> 9                               COMMENT
L2: 1 -> 1; 150 -> 5; 250 -> 9                              COMMENT
Original height was 1.2420                                  COMMENT
New height found assuming measured height 1.4240            COMMENT
and assuming radial 0.1737 vertical -0.0640                 COMMENT
  2001    12     3    16    15    0.0000000     GPS         TIME OF FIRST OBS
                                                            END OF HEADER
 01 12  3 16 15  0.0000000  0  7G 1G20G 4G27G25G22G13
    -48870.00949    -31499.91347  17573024.757    17573024.210    17573031.685
       243.000         206.000
      8077.26559      4137.88957  17210080.378    17210079.206    17210085.844
       239.000         206.000
    -15200.42243                  21236332.508
       220.000          74.000
    -36992.87243                  20937166.657
       221.000          74.000
     19605.39743                  20620403.498
       225.000          74.000
     -7540.71559     -4101.01457  17360908.527    17360907.276    17360914.887
       244.000         211.000
     -4855.87743                  19452827.972
       231.000          74.000
 01 12  3 16 15 30.0000000  0  8G 1G20G29G 4G27G25G22G13
   -109749.28949    -78938.37147  17561440.022    17561439.367    17561446.801
       242.000         206.000
     19878.76059     13333.76847  17212325.924    17212324.933    17212331.793
       239.000         206.000
      9173.75053                  20931714.489
       213.000          74.000
    -56449.53049    -37889.47745  21230792.263    21230792.428    21230801.320
       221.000         156.000
   -170451.59149   -117014.14946  20917625.460    20917625.401    20917637.126
       221.000         167.000
     90653.22249     61955.39546  20630746.147    20630746.309    20630758.322
       225.000         170.000
    -18532.95059    -12666.46247  17358816.714    17358815.627    17358823.369
       244.000         211.000
   -145832.47349    -83578.08846  19433605.098    19433604.822    19433613.326
       230.000         177.000
 01 12  3 16 16  0.0010000  0  7G 1G20G 4G27G25G22G13
   -170458.33049   -126244.17547  21447189.511    21447188.786    21447196.217
       242.000         206.000
     32194.43149     22930.30447  21111971.525    21111970.508    21111977.405
       239.000         206.000
    -85099.72549    -60214.49245  25122642.618    25122642.868    25122652.713
       221.000         162.000
   -272992.43449   -196916.15645  24795414.848    24795414.391    24795424.439
       220.000         161.000
    144946.47849    104261.52046  24538380.417    24538380.404    24538391.783
       225.000         169.000
    -28908.73149    -20751.55047  21254144.326    21254143.184    21254150.984
       245.000         211.000
   -246798.07349   -162252.62446  23311693.984    23311693.678    23311701.622
       232.000         177.000
 01 12  3 16 16 30.0010000  0  8G 1G20G29G 4G27G25G22G13
   -230965.20549   -173392.44447  21435675.458    21435674.712    21435682.160
       242.000         206.000
     45112.39649     32996.15847  21114429.752    21114428.723    21114435.628
       239.000         206.000
    124598.26349     79693.78945  24846239.137    24846239.018    24846253.559
       213.000         149.000
   -113226.67349    -82131.74545  25117290.263    25117290.329    25117300.421
       219.000         158.000
   -375382.77549   -276700.80946  24775930.749    24775930.178    24775940.704
       222.000         173.000
    199305.86449    146619.18046  24548724.989    24548724.762    24548736.287
       226.000         171.000
    -38597.57249    -28301.35347  21252300.633    21252299.492    21252307.305
       245.000         211.000
   -347702.60449   -240879.54146  23292492.420    23292492.130    23292500.252
       229.000         178.000
 01 12  3 16 17  0.0010000  0  8G 1G20G29G 4G27G25G22G13
   -291256.16949   -220372.47447  21424202.568    21424201.759    21424209.189
       243.000         206.000
     58615.04949     43517.61247  21116999.253    21116998.224    21117005.137
       239.000         206.000
    170121.26949    115165.90945  24854902.030    24854902.211    24854917.446
       215.000         151.000
   -140831.23449   -103641.91945  25112037.394    25112037.362    25112047.433
       223.000         159.000
   -477592.93249   -356345.02346  24756480.921    24756480.240    24756491.229
       220.000         163.000
    253697.21349    189001.74846  24559075.397    24559075.109    24559086.778
       223.000         172.000
    -47607.61649    -35322.21847  21250586.114    21250584.961    21250592.809
       244.000         211.000
   -448516.39849   -319435.78846  23273308.293    23273307.965    23273315.910
       232.000         179.000
 01 12  3 16 17 30.0010000  0  8G 1G20G29G 4G27G25G22G13
   -351399.78449   -267237.68047  21412757.715    21412756.872    21412764.277
       243.000         206.000
     72631.86649     54439.72447  21119666.651    21119665.596    21119672.503
       240.000         206.000
    215745.99959    150717.26455  24863584.302    24863584.448    24863598.966
       214.000         151.000
   -167983.73949   -124799.87545  25106870.522    25106870.422    25106880.371
       217.000         151.000
   -579692.40049   -435903.09446  24737051.992    24737051.337    24737062.182
       215.000         163.000
    308049.95049    231354.22546  24569418.616    24569418.257    24569429.951
       224.000         169.000
    -56009.18449    -41868.94847  21248987.412    21248986.216    21248994.067
       244.000         211.000
   -549308.30449   -397974.95146  23254128.239    23254127.901    23254135.876
       233.000         178.000
 01 12  3 16 18  0.0010000  0  8G 1G20G29G 4G27G25G22G13
   -411432.29449   -314016.31847  21401333.991    21401333.109    21401340.510
       243.000         207.000
     87124.51749     65732.60347  21122424.607    21122423.497    21122430.424
       240.000         206.000
    261435.25449    186318.89245  24872278.899    24872278.795    24872293.575
       215.000         154.000
   -194722.24149   -145635.28845  25101782.308    25101782.213    25101792.038
       216.000         151.000
   -681718.21349   -515403.66246  24717637.060    24717636.408    24717647.473
       224.000         174.000
    362326.09649    273646.99646  24579747.254    24579746.782    24579758.529
       225.000         170.000
    -63840.50949    -47971.33747  21247497.245    21247496.003    21247503.826
       244.000         211.000
   -650114.76749   -476525.49046  23234945.441    23234945.124    23234952.988
       232.000         178.000
 01 12  3 16 18 30.0010000  0  8G 1G20G29G 4G27G25G22G13
   -471375.72149   -360725.54547  21389927.206    21389926.304    21389933.677
       243.000         207.000
    102068.84449     77377.44247  21125268.501    21125267.362    21125274.284
       240.000         206.000
    307165.99149    221952.84645  24880981.350    24880981.311    24880996.036
       211.000         155.000
   -221070.37149   -166166.46345  25096768.535    25096768.395    25096778.111
       218.000         147.000
   -783692.99049   -594864.54846  24698232.005    24698231.272    24698242.323
       219.000         170.000
    416501.76949    315861.50946  24590056.704    24590056.187    24590067.894
       222.000         169.000
    -71125.26149    -53647.83347  21246111.115    21246109.804    21246117.592
       245.000         211.000
   -750957.88249   -555104.56146  23215755.733    23215755.350    23215763.238
       233.000         179.000
 01 12  3 16 19  0.0010000  0  8G 1G20G29G 4G27G25G22G13
   -531214.16349   -407352.96447  21378540.449    21378539.490    21378546.842
       243.000         207.000
    117478.56949     89384.92947  21128200.988    21128199.802    21128206.704
       240.000         207.000
    352952.99549    257630.63045  24889694.571    24889694.514    24889709.240
       213.000         157.000
   -247014.18149   -186382.53545  25091831.669    25091831.484    25091841.063
       219.000         145.000
   -885601.79049   -674273.96546  24678839.382    24678838.626    24678849.746
       217.000         168.000
    470590.75749    358008.44046  24600349.712    24600349.067    24600360.837
       221.000         167.000
    -77849.48749    -58887.55547  21244831.639    21244830.266    21244838.056
       245.000         211.000
   -851822.00749   -633700.01646  23196562.003    23196561.579    23196569.378
       233.000         179.000
 01 12  3 16 19 30.0010000  0  8G 1G20G29G 4G27G25G22G13
   -590961.45049   -453909.35147  21367170.984    21367170.008    21367177.340
       243.000         207.000
    133337.88949    101742.74947  21131219.038    21131217.810    21131224.715
       240.000         207.000
    398781.28549    293340.56445  24898415.611    24898415.436    24898430.337
       212.000         158.000
   -272569.44349   -206295.85245  25086968.592    25086968.440    25086978.016
       220.000         151.000
   -987459.20749   -753643.36746  24659456.643    24659455.829    24659467.016
       221.000         168.000
    524577.44749    400075.67146  24610623.375    24610622.557    24610634.311
       222.000         164.000
    -84029.09649    -63702.90747  21243655.778    21243654.377    21243662.167
       245.000         212.000
   -952721.14549   -712322.73146  23177361.622    23177361.167    23177369.012
       233.000         181.000
 01 12  3 16 20  0.0010000  0  8G 1G20G29G 4G27G25G22G13
   -650607.27249   -500386.67947  21355820.842    21355819.840    21355827.152
       243.000         207.000
    149654.70449    114457.05247  21134324.143    21134322.882    21134329.782
       240.000         207.000
    444660.25049    329090.00445  24907146.287    24907146.038    24907161.027
       211.000         157.000
   -297727.67449   -225899.80145  25082181.288    25082181.044    25082190.768
       222.000         155.000
  -1089255.70549   -832965.23946  24640085.364    24640084.572    24640095.942
       222.000         167.000
    578469.88549    442069.45646  24620878.930    24620878.107    24620889.882
       222.000         170.000
    -89655.46449    -68087.17147  21242585.207    21242583.778    21242591.585
       245.000         212.000
  -1053645.13049   -790964.82646  23158156.414    23158155.983    23158163.765
       233.000         179.000
 01 12  3 16 20 30.0010000  0  8G 1G20G29G 4G27G25G22G13
   -710136.29849   -546772.98947  21344492.922    21344491.904    21344499.189
       243.000         207.000
    166441.95849    127537.93647  21137518.761    21137517.476    21137524.376
       241.000         207.000
    490604.00549    364889.95645  24915889.449    24915888.998    24915904.034
       214.000         160.000
   -322475.42049   -245183.90245  25077472.319    25077471.879    25077481.697
       226.000         159.000
  -1190976.89549   -912228.46046  24620728.472    24620727.690    24620739.068
       226.000         172.000
    632281.45449    484000.23546  24631119.137    24631118.291    24631129.994
       222.000         163.000
    -94715.54749    -72030.17647  21241622.406    21241620.937    21241628.746
       244.000         211.000
  -1154579.03149   -869614.62446  23138949.427    23138948.942    23138956.760
       232.000         180.000
 01 12  3 16 21  0.0010000  0  8G 1G20G29G 4G27G25G22G13
   -769538.00849   -593060.08647  21333189.195    21333188.184    21333195.451
       243.000         207.000
    183707.95849    140991.86547  21140804.477    21140803.164    21140810.072
       241.000         207.000
    536621.73949    400747.55345  24924646.717    24924646.035    24924661.170
       214.000         160.000
   -346803.92649   -264141.31845  25072843.129    25072842.520    25072852.376
       226.000         161.000
  -1292612.96149   -991425.40146  24601387.988    24601387.087    24601398.368
       224.000         172.000
    686021.14249    525874.98146  24641345.702    24641344.834    24641356.548
       222.000         166.000
    -99200.91149    -75525.35047  21240768.953    21240767.461    21240775.252
       245.000         211.000
  -1255512.26349   -948263.93046  23119742.459    23119742.001    23119749.804
       233.000         179.000
 01 12  3 16 21 30.0010000  0  9G 1G20G29G 4G27G25G22G 3G13
   -828809.50849   -639245.72247  21321910.272    21321909.258    21321916.523
       243.000         207.000
    201453.45549    154819.42647  21144181.430    21144180.101    21144187.030
       241.000         208.000
    582715.39749    436664.29845  24933418.359    24933417.564    24933432.804
       210.000         160.000
   -370712.50049   -282771.55646  25068293.657    25068293.023    25068302.918
       224.000         165.000
  -1394162.10949  -1070554.58846  24582063.718    24582062.898    24582074.171
       222.000         170.000
    739689.34949    567694.04046  24651558.851    24651557.809    24651569.536
       220.000         166.000
   -103110.39649    -78571.79247  21240025.083    21240023.582    21240031.357
       244.000         211.000
  -1366891.73359  -1051910.95355  25669927.368    25669926.485    25669946.540
       196.000         137.000
  -1356442.15749  -1026910.59946  23100536.056    23100535.645    23100543.557
       231.000         181.000
 01 12  3 16 22  0.0010000  0  9G 1G20G29G 4G27G25G22G 3G13
   -887936.45949   -685318.72047  21310658.875    21310657.844    21310665.125
       243.000         208.000
    219690.15849    169029.75147  21147651.862    21147650.519    21147657.483
       240.000         207.000
    628898.17849    472650.52045  24942206.868    24942206.035    24942221.446
       212.000         158.000
   -394188.87849   -301065.00346  25063826.328    25063825.699    25063835.663
       225.000         167.000
  -1495610.95149  -1149605.60946  24562758.625    24562757.767    24562769.082
       223.000         174.000
    793298.60449    609467.16746  24661760.649    24661759.550    24661771.314
       222.000         164.000
   -106432.09349    -81160.21647  21239393.055    21239391.546    21239399.315
       244.000         211.000
  -1468055.33649  -1130739.32345  25650676.237    25650675.564    25650695.531
       202.000         139.000
  -1457354.67649  -1105543.74446  23081333.042    23081332.675    23081340.532
       232.000         178.000
 01 12  3 16 22 30.0010000  0  9G 1G20G29G 4G27G25G22G 3G13
   -946913.81549   -731275.14747  21299435.941    21299434.885    21299442.175
       243.000         208.000
    238420.71749    183624.89447  21151216.197    21151214.893    21151221.914
       240.000         207.000
    675173.94349    508709.19945  24951013.205    24951012.227    24951027.682
       212.000         155.000
   -417229.83349   -319019.14846  25059441.960    25059441.275    25059451.376
       225.000         167.000
  -1596955.24549  -1228575.15046  24543473.377    24543472.533    24543483.951
       224.000         172.000
    846852.12949    651196.82846  24671951.812    24671950.655    24671962.563
       222.000         166.000
   -109163.00649    -83288.29047  21238873.448    21238871.937    21238879.719
       244.000         211.000
  -1569307.80749  -1209636.92945  25631408.437    25631407.702    25631427.664
       202.000         142.000
  -1558244.72249  -1184159.37346  23062134.360    23062133.957    23062141.844
       234.000         181.000
 01 12  3 16 23  0.0010000  0  9G 1G20G29G 4G27G25G22G 3G13
  -1005744.88949   -777117.58647  21288240.806    21288239.756    21288247.085
       243.000         208.000
    257639.59349    198600.54347  21154873.450    21154872.170    21154879.254
       240.000         207.000
    721538.00749    544836.70445  24959836.407    24959835.330    24959850.786
       210.000         153.000
   -439840.97649   -336638.39446  25055139.369    25055138.642    25055148.912
       223.000         167.000
  -1698199.31649  -1307466.60946  24524207.306    24524206.444    24524217.884
       223.000         172.000
    900344.84949    692879.15446  24682131.376    24682130.179    24682142.126
       220.000         166.000
   -111308.80549    -84960.43847  21238465.169    21238463.666    21238471.478
       244.000         212.000
  -1670651.14149  -1288605.37245  25612123.178    25612122.539    25612142.519
       204.000         141.000
  -1659115.97049  -1262760.38146  23042939.226    23042938.795    23042946.641
       234.000         180.000
 01 12  3 16 23 30.0010000  0  9G 1G20G29G 4G27G25G22G 3G13
  -1064428.27749   -822844.93847  21277073.765    21277072.732    21277080.103
       242.000         209.000
    277345.65049    213955.81547  21158623.465    21158622.181    21158629.302
       240.000         207.000
    767990.61049    581033.20145  24968676.450    24968675.197    24968690.705
       208.000         150.000
   -462022.85349   -353923.14046  25050918.323    25050917.618    25050928.178
       217.000         164.000
  -1799342.84949  -1386279.77946  24504960.409    24504959.507    24504970.797
       223.000         166.000
    953776.11149    734513.57345  24692299.318    24692298.051    24692309.981
       220.000         162.000
   -112870.10249    -86177.13047  21238168.077    21238166.618    21238174.491
       244.000         212.000
  -1772082.31949  -1367642.27345  25592821.227    25592820.694    25592840.583
       207.000         140.000
  -1759967.35349  -1341345.88146  23023747.921    23023747.476    23023755.328
       234.000         181.000
 01 12  3 16 24  0.0010000  0  9G 1G20G29G 4G27G25G22G 3G13
  -1122989.99749   -868477.48247  21265929.914    21265928.871    21265936.255
       242.000         209.000
    297510.50149    229668.58447  21162460.800    21162459.497    21162466.648
       241.000         207.000
    814504.85649    617277.73545  24977528.060    24977526.691    24977542.396
       206.000         148.000
   -483803.57949   -370895.31546  25046773.551    25046772.892    25046783.729
       215.000         163.000
  -1900412.54649  -1465035.40246  24485727.421    24485726.557    24485737.720
       225.000         168.000
   1007118.20149    776078.51246  24702450.264    24702448.941    24702460.966
       217.000         163.000
   -113875.13849    -86960.36647  21237976.849    21237975.435    21237983.359
       244.000         212.000
  -1873625.20549  -1446766.31345  25573497.947    25573497.523    25573517.378
       208.000         140.000
  -1860824.86249  -1419936.16446  23004555.343    23004554.940    23004562.731
       235.000         179.000
 01 12  3 16 24 30.0010000  0  9G 1G20G29G 4G27G25G22G 3G13
  -1181376.77149   -913973.69547  21254819.360    21254818.308    21254825.705
       242.000         209.000
    318184.86549    245778.38047  21166395.074    21166393.766    21166400.955
       241.000         207.000
    861132.50049    653610.65445  24986401.196    24986399.899    24986415.628
       206.000         147.000
   -505131.99549   -387515.01245  25042714.796    25042714.203    25042725.277
       216.000         161.000
  -2001356.04649  -1543692.68546  24466518.552    24466517.699    24466528.735
       228.000         168.000
   1060422.12049    817613.73545  24712593.949    24712592.590    24712604.600
       220.000         161.000
   -114273.08349    -87270.53747  21237901.196    21237899.768    21237907.764
       244.000         212.000
  -1975225.00849  -1525934.66845  25554163.970    25554163.504    25554183.360
       211.000         143.000
  -1961635.46749  -1498489.88946  22985371.799    22985371.344    22985379.136
       233.000         178.000
 01 12  3 16 25  0.0010000  0  9G 1G20G29G 4G27G25G22G 3G13
  -1239592.86449   -959336.90947  21243741.267    21243740.212    21243747.632
       242.000         209.000
    339362.05649    262279.98847  21170425.069    21170423.739    21170430.947
       241.000         208.000
    907868.29449    690027.86845  24995294.889    24995293.640    24995309.435
       208.000         145.000
   -526014.32149   -403787.09045  25038740.988    25038740.466    25038751.772
       213.000         158.000
  -2102178.50749  -1622255.66746  24447332.594    24447331.806    24447342.711
       225.000         168.000
   1113681.81849    859114.45046  24722729.109    24722727.772    24722739.946
       221.000         164.000
   -114070.22149    -87112.54447  21237939.881    21237938.446    21237946.505
       244.000         212.000
  -2076884.39549  -1605149.48345  25534818.574    25534818.176    25534838.065
       208.000         136.000
  -2062403.37349  -1577010.36246  22966196.339    22966195.884    22966203.520
       233.000         178.000
 01 12  3 16 25 30.0010000  0  9G 1G20G29G 4G27G25G22G 3G13
  -1297639.63549  -1004568.18547  21232695.379    21232694.328    21232701.773
       242.000         209.000
    361038.43349    279170.56747  21174550.064    21174548.712    21174555.946
       241.000         208.000
    954709.80549    726527.46145  25004208.825    25004207.557    25004223.366
       205.000         144.000
   -546454.20849   -419714.44645  25034851.455    25034850.923    25034862.344
       216.000         160.000
  -2202882.31949  -1700726.15846  24428169.293    24428168.491    24428179.498
       225.000         173.000
   1166893.80149    900578.03046  24732855.340    24732853.955    24732866.144
       219.000         164.000
   -113270.19749    -86489.22947  21238092.229    21238090.761    21238098.870
       244.000         212.000
  -2178602.83049  -1684410.32545  25515462.077    25515461.684    25515481.386
       211.000         140.000
  -2163129.90649  -1655498.55646  22947028.712    22947028.237    22947035.935
       233.000         178.000
 01 12  3 16 26  0.0010000  0  9G 1G20G29G 4G27G25G22G 3G13
  -1355515.37549  -1049666.19147  21221681.992    21221680.980    21221688.459
       243.000         209.000
    383213.06949    296449.40047  21178769.846    21178768.496    21178775.777
       241.000         208.000
   1001657.63949    763109.90645  25013143.074    25013141.703    25013157.462
       207.000         144.000
   -566451.81549   -435297.13645  25031046.229    25031045.658    25031057.018
       218.000         159.000
  -2303466.57949  -1779103.52546  24409028.806    24409027.956    24409039.035
       229.000         173.000
   1220058.62349    942004.82345  24742972.497    24742971.117    24742983.464
       219.000         161.000
   -111873.60749    -85401.05947  21238358.056    21238356.589    21238364.769
       243.000         212.000
  -2280376.98949  -1763714.60045  25496094.967    25496094.533    25496114.136
       213.000         133.000
  -2263813.58249  -1733953.39746  22927869.288    22927868.791    22927876.390
       232.000         178.000
 01 12  3 16 26 30.0010000  0  9G 1G20G29G 4G27G25G22G 3G13
  -1413196.42949  -1094612.49647  21210705.629    21210704.656    21210712.196
       242.000         208.000
    405906.98849    314132.86647  21183088.431    21183087.093    21183094.427
       241.000         208.000
   1048733.72449    799792.30045  25022101.746    25022100.266    25022115.987
       208.000         146.000
   -585986.07249   -450518.77845  25027329.037    25027328.487    25027339.852
       213.000         152.000
  -2403908.87349  -1857370.29146  24389915.492    24389914.535    24389925.515
       225.000         173.000
   1273197.44249    983411.37246  24753084.731    24753083.347    24753095.802
       221.000         166.000
   -109859.36249    -83831.59147  21238741.387    21238739.943    21238748.179
       243.000         211.000
  -2382181.73849  -1843042.83245  25476722.044    25476721.550    25476740.961
       211.000         135.000
  -2364431.01749  -1812356.58646  22908722.279    22908721.912    22908729.614
       234.000         180.000
 01 12  3 16 27  0.0010000  0  9G 1G20G29G 4G27G25G22G 3G13
  -1470715.00649  -1139432.19147  21199760.170    21199759.239    21199766.826
       241.000         208.000
    429085.26149    332193.75947  21187499.194    21187497.869    21187505.208
       241.000         207.000
   1095904.76949    836548.66845  25031078.377    25031076.846    25031092.631
       207.000         144.000
   -605091.36949   -465406.18645  25023693.468    25023692.932    25023704.281
       215.000         152.000
  -2504242.42849  -1935552.29046  24370822.583    24370821.705    24370832.759
       228.000         174.000
   1326276.37249   1024771.24945  24763185.587    24763184.174    24763196.751
       220.000         162.000
   -107262.14749    -81807.85647  21239235.680    21239234.239    21239242.506
       243.000         211.000
  -2484047.56449  -1922418.59145  25457337.411    25457336.936    25457356.088
       212.000         133.000
  -2465014.63049  -1890733.43346  22889581.853    22889581.487    22889589.161
       233.000         179.000
 01 12  3 16 27 30.0010000  0  9G 1G20G29G 4G27G25G22G 3G13
  -1528055.74449  -1184113.31947  21188848.605    21188847.673    21188855.305
       242.000         208.000
    452760.83549    350642.14647  21192004.599    21192003.267    21192010.600
       242.000         207.000
   1143184.85649    873390.00745  25040075.698    25040074.194    25040090.064
       209.000         145.000
   -623754.68849   -479949.15045  25020142.075    25020141.514    25020152.891
       216.000         148.000
  -2604452.74449  -2013638.27846  24351753.101    24351752.273    24351763.350
       222.000         168.000
   1379308.94549   1066094.97246  24773277.523    24773276.170    24773288.887
       221.000         165.000
   -104068.89049    -79319.67647  21239843.410    21239841.961    21239850.228
       244.000         211.000
  -2585957.33449  -2001828.67845  25437944.535    25437943.979    25437963.069
       212.000         137.000
  -2565548.95449  -1969071.87846  22870450.820    22870450.440    22870458.185
       234.000         180.000
 01 12  3 16 28  0.0010000  0  9G 1G20G29G 4G27G25G22G 3G13
  -1585195.26749  -1228637.65147  21177975.344    21177974.424    21177982.055
       242.000         208.000
    476954.17749    369493.99947  21196608.520    21196607.199    21196614.524
       241.000         207.000
   1190595.96449    910333.47045  25049097.905    25049096.473    25049112.419
       207.000         146.000
   -641954.93649   -494131.32145  25016678.775    25016678.199    25016689.502
       213.000         144.000
  -2704517.66849  -2091610.97446  24332711.337    24332710.521    24332721.617
       225.000         168.000
   1432316.26449   1107399.05745  24783364.915    24783363.413    24783376.185
       218.000         161.000
   -100258.97449    -76350.97647  21240568.501    21240567.050    21240575.292
       244.000         211.000
  -2687886.22549  -2081253.72044  25418547.898    25418547.431    25418566.583
       209.000         131.000
  -2666011.05449  -2047354.02846  22851333.557    22851333.171    22851340.838
       234.000         182.000
 01 12  3 16 28 30.0010000  0  9G 1G20G29G 4G27G25G22G 3G13
  -1642134.30049  -1273005.76047  21167140.242    21167139.319    21167146.958
       242.000         208.000
    501662.17649    388746.88047  21201310.321    21201309.050    21201316.377
       241.000         207.000
   1238136.35049    947377.68945  25058144.651    25058143.293    25058159.403
       207.000         145.000
   -659695.22249   -507955.04245  25013302.991    25013302.397    25013313.622
       217.000         148.000
  -2804438.74549  -2169471.60646  24313697.147    24313696.213    24313707.254
       223.000         172.000
   1485296.04549   1148681.64545  24793446.796    24793445.396    24793458.283
       221.000         162.000
    -95835.50149    -72904.18147  21241410.384    21241408.892    21241417.097
       244.000         210.000
  -2789833.04849  -2160692.78445  25399147.928    25399147.546    25399166.416
       210.000         134.000
  -2766401.67949  -2125580.48246  22832229.857    22832229.499    22832237.179
       234.000         181.000
 01 12  3 16 29  0.0010000  0  9G 1G20G29G 4G27G25G22G 3G13
  -1698878.13949  -1317221.77047  21156342.286    21156341.352    21156349.028
       242.000         208.000
    526876.84149    408394.56247  21206108.587    21206107.327    21206114.655
       241.000         207.000
   1285799.36849    984517.45145  25067214.737    25067213.422    25067229.724
       204.000         143.000
   -676982.98449   -521426.15845  25010013.362    25010012.774    25010023.994
       217.000         154.000
  -2904222.31349  -2247225.04746  24294709.001    24294708.081    24294719.193
       226.000         177.000
   1538240.91149   1189937.06045  24803522.076    24803520.698    24803533.598
       216.000         158.000
    -90806.14649    -68985.27547  21242367.525    21242366.013    21242374.207
       244.000         210.000
  -2891801.30849  -2240148.62445  25379743.925    25379743.499    25379762.190
       208.000         132.000
  -2866725.98749  -2203755.25946  22813138.818    22813138.452    22813146.135
       235.000         182.000
 01 12  3 16 29 30.0010000  0  9G 1G20G29G 4G27G25G22G 3G13
  -1755436.20749  -1361293.03647  21145579.694    21145578.746    21145586.431
       242.000         208.000
    552585.93949    428427.51647  21211000.978    21210999.682    21211007.024
       241.000         207.000
   1333574.37249   1021744.48045  25076306.130    25076304.931    25076321.249
       206.000         140.000
   -693830.02649   -534553.92445  25006807.583    25006806.977    25006818.252
       214.000         151.000
  -3003878.87449  -2324879.54546  24275745.043    24275744.124    24275755.215
       227.000         177.000
   1591139.83749   1231156.61945  24813588.684    24813587.323    24813600.335
       219.000         155.000
    -85183.02849    -64603.70247  21243437.600    21243436.097    21243444.326
       243.000         210.000
  -2993798.82249  -2319627.23045  25360334.394    25360333.936    25360352.478
       205.000         133.000
  -2966993.72449  -2281885.94446  22794058.538    22794058.166    22794065.885
       234.000         182.000
 01 12  3 16 30  0.0010000  0  9G 1G20G29G 4G27G25G22G 3G13
  -1811785.83549  -1405201.88147  21134856.747    21134855.801    21134863.493
       242.000         208.000
    578809.14249    448861.06747  21215991.184    21215989.881    21215997.230
       241.000         207.000
   1381482.61849   1059075.32945  25085422.966    25085421.756    25085438.162
       206.000         137.000
   -710216.26549   -547322.54345  25003689.582    25003688.934    25003700.271
       220.000         153.000
  -3103386.84349  -2402418.22346  24256809.300    24256808.418    24256819.578
       222.000         174.000
   1644013.54449   1272356.57245  24823650.411    24823649.069    24823662.146
       215.000         155.000
    -78946.13649    -59743.86047  21244624.541    21244622.991    21244631.249
       243.000         210.000
  -3095801.24549  -2399109.80045  25340924.103    25340923.545    25340941.844
       207.000         137.000
  -3067182.41749  -2359955.04746  22774993.323    22774992.928    22775000.636
       235.000         184.000
 01 12  3 16 30 30.0010000  0  9G 1G20G29G 4G27G25G22G 3G13
  -1867940.00149  -1448958.42447  21124170.975    21124170.051    21124177.736
       241.000         208.000
    605530.79749    469683.01947  21221076.221    21221074.911    21221082.288
       241.000         207.000
   1429509.76249   1096498.84645  25094562.465    25094561.234    25094577.684
       205.000         137.000
   -726157.03149   -559744.05745  25000656.366    25000655.693    25000667.050
       219.000         156.000
  -3202760.27849  -2479852.10046  24237899.067    24237898.248    24237909.454
       225.000         175.000
   1696846.80749   1313524.99945  24833704.567    24833703.179    24833716.291
       218.000         154.000
    -72111.02649    -54417.88147  21245925.255    21245923.721    21245931.998
       243.000         210.000
  -3197820.20049  -2478605.22345  25321510.486    25321509.932    25321528.111
       205.000         133.000
  -3167305.13949  -2437972.75346  22755940.614    22755940.198    22755947.988
       234.000         182.000
 01 12  3 16 31  0.0010000  0  9G 1G20G29G 4G27G25G22G 3G13
  -1923913.08249  -1492573.86047  21113519.701    21113518.765    21113526.430
       241.000         207.000
    632733.90049    490880.12847  21226252.844    21226251.554    21226258.971
       241.000         207.000
   1477640.08049   1134002.74445  25103721.693    25103720.330    25103736.809
       202.000         135.000
   -741669.04349   -571831.51945  24997704.537    24997703.951    24997715.488
       216.000         154.000
  -3302014.44749  -2557193.03646  24219011.690    24219010.809    24219022.078
       225.000         175.000
   1749624.01149   1354649.76245  24843747.917    24843746.592    24843759.719
       217.000         157.000
    -64694.70949    -48639.01547  21247336.567    21247335.056    21247343.357
       243.000         210.000
  -3299867.94149  -2558123.09145  25302091.398    25302090.886    25302108.948
       207.000         138.000
  -3267376.19749  -2515950.19746  22736897.760    22736897.342    22736905.160
       234.000         183.000
 01 12  3 16 31 30.0010000  0  9G 1G20G29G 4G27G25G22G 3G13
  -1979684.65949  -1536032.27947  21102906.733    21102905.827    21102913.470
       242.000         207.000
    660435.98549    512466.05647  21231524.459    21231523.158    21231530.624
       241.000         207.000
   1525892.78249   1171602.02945  25112904.087    25112902.738    25112919.250
       202.000         134.000
   -756734.35049   -583570.91545  24994837.827    24994837.185    24994848.883
       218.000         156.000
  -3401130.10849  -2634426.07446  24200150.747    24200149.789    24200160.955
       228.000         175.000
   1802363.56549   1395745.16345  24853784.299    24853782.885    24853796.065
       218.000         153.000
    -56679.49449    -42393.48247  21248861.835    21248860.361    21248868.700
       243.000         210.000
  -3401922.55649  -2637646.35945  25282671.192    25282670.691    25282688.493
       206.000         136.000
  -3367375.23349  -2593871.52746  22717868.555    22717868.165    22717875.978
       235.000         184.000
 01 12  3 16 32  0.0010000  0  9G 1G20G29G 4G27G25G22G 3G13
  -2035248.38349  -1579328.73747  21092333.347    21092332.441    21092340.070
       241.000         207.000
    688640.53049    534443.51247  21236891.695    21236890.390    21236897.911
       241.000         207.000
   1574272.45949   1209300.22745  25122110.643    25122109.288    25122125.793
       200.000         134.000
   -771349.16549   -594959.27245  24992056.955    24992056.283    24992067.921
       218.000         154.000
  -3500102.28449  -2711547.28746  24181317.088    24181316.069    24181327.162
       229.000         179.000
   1855069.61149   1436814.43945  24863814.119    24863812.733    24863826.029
       217.000         157.000
    -48061.82349    -35678.51247  21250501.755    21250500.309    21250508.685
       243.000         210.000
  -3503975.88749  -2717168.52745  25263251.262    25263250.636    25263268.448
       204.000         138.000
  -3467296.27649  -2671732.07746  22698854.217    22698853.841    22698861.707
       234.000         184.000
 01 12  3 16 32 30.0010000  0  9G 1G20G29G 4G27G25G22G 3G13
  -2090610.78649  -1622468.32947  21081798.300    21081797.361    21081804.964
       242.000         207.000
    717337.95749    556805.03447  21242352.684    21242351.403    21242358.973
       242.000         207.000
   1622771.67349   1247091.59045  25131339.859    25131338.565    25131355.083
       203.000         134.000
   -785522.77349   -606003.84345  24989359.988    24989359.266    24989370.905
       217.000         156.000
  -3598938.54149  -2788562.59946  24162509.232    24162508.222    24162519.239
       226.000         176.000
   1907733.47149   1477850.86545  24873835.965    24873834.632    24873848.026
       218.000         159.000
    -38850.98249    -28501.33247  21252254.532    21252253.126    21252261.543
       242.000         210.000
  -3606032.67749  -2796693.38745  25243830.709    25243829.920    25243847.783
       202.000         137.000
  -3567145.78749  -2749536.91246  22679853.481    22679853.116    22679860.976
       236.000         184.000
 01 12  3 16 33  0.0010000  0  9G 1G20G29G 4G27G25G22G 3G13
  -2145769.77849  -1665449.41347  21071301.930    21071300.990    21071308.594
       242.000         207.000
    746527.82049    579550.27547  21247907.391    21247906.130    21247913.726
       242.000         207.000
   1671391.04749   1284976.60745  25140591.982    25140590.611    25140607.293
       203.000         135.000
   -799255.43549   -616704.82645  24986746.874    24986746.183    24986757.809
       216.000         153.000
  -3697637.73749  -2865471.08246  24143727.444    24143726.423    24143737.467
       225.000         179.000
   1960355.87149   1518854.95245  24883849.969    24883848.566    24883862.157
       216.000         159.000
    -29047.51549    -20862.36647  21254120.078    21254118.713    21254127.158
       243.000         210.000
  -3708089.04749  -2876217.83345  25224409.921    25224409.201    25224427.025
       199.000         136.000
  -3666921.94349  -2827284.56946  22660866.739    22660866.363    22660874.248
       236.000         185.000
 01 12  3 16 33 30.0010000  0  9G 1G20G29G 4G27G25G22G 3G13
  -2200728.33249  -1708274.32347  21060843.732    21060842.774    21060850.360
       242.000         207.000
    776203.86949    602674.35547  21253554.623    21253553.372    21253561.001
       242.000         207.000
   1720125.92149   1322951.60845  25149866.079    25149864.755    25149881.454
       201.000         136.000
   -812552.51549   -627066.39445  24984216.595    24984215.978    24984227.650
       212.000         151.000
  -3796203.96049  -2942275.95146  24124970.797    24124969.857    24124980.966
       225.000         174.000
   2012932.00949   1559823.02445  24893855.273    24893853.833    24893867.403
       220.000         161.000
    -18657.37349    -12766.25647  21256097.280    21256095.953    21256104.398
       243.000         210.000
  -3810146.57349  -2955743.07945  25204988.919    25204988.205    25205006.137
       202.000         137.000
  -3766627.77449  -2904977.44846  22641893.397    22641892.987    22641900.845
       236.000         186.000
 01 12  3 16 34  0.0010000  0  9G 1G20G29G 4G27G25G22G 3G13
  -2255488.14749  -1750944.37447  21050423.348    21050422.381    21050429.933
       242.000         207.000
    806361.70849    626173.85547  21259293.518    21259292.298    21259299.974
       242.000         208.000
   1768973.61549   1361014.52345  25159161.550    25159160.343    25159177.123
       203.000         138.000
   -825418.21449   -637091.81945  24981768.279    24981767.769    24981779.501
       209.000         146.000
  -3894639.88949  -3018979.31246  24106239.108    24106238.169    24106249.264
       226.000         175.000
   2065458.53749   1600752.39345  24903851.136    24903849.586    24903863.336
       216.000         161.000
     -7685.05649     -4216.50247  21258185.290    21258183.974    21258192.424
       243.000         209.000
  -3912204.85649  -3035268.90145  25185567.799    25185567.137    25185585.120
       205.000         140.000
  -3866264.77349  -2982616.69246  22622933.084    22622932.733    22622940.585
       236.000         186.000
 01 12  3 16 34 30.0010000  0  9G 1G20G29G 4G27G25G22G 3G13
  -2310041.17349  -1793453.28247  21040042.314    21040041.340    21040048.865
       241.000         206.000
    837006.18649    650052.55247  21265125.084    21265123.831    21265131.564
       242.000         208.000
   1817940.57349   1399170.38145  25168479.854    25168478.694    25168495.596
       204.000         139.000
   -837847.44749   -646777.14745  24979403.106    24979402.625    24979414.418
       210.000         149.000
  -3992938.89949  -3095575.98846  24087533.582    24087532.552    24087543.578
       228.000         177.000
   2117941.21549   1641647.65645  24913838.530    24913836.972    24913850.703
       219.000         162.000
      3874.75349      4791.04347  21260385.103    21260383.787    21260392.244
       243.000         209.000
  -4014254.36349  -3114787.80545  25166148.378    25166147.740    25166165.807
       207.000         138.000
  -3965825.13649  -3060196.22546  22603987.493    22603987.089    22603994.892
       236.000         187.000
 01 12  3 16 35  0.0010000  0  9G 1G20G29G 4G27G25G22G 3G13
  -2364384.46849  -1835798.76847  21029701.187    21029700.207    21029707.714
       241.000         206.000
    868137.58249    674310.66447  21271049.300    21271048.040    21271055.804
       242.000         207.000
   1867028.35149   1437420.36445  25177821.082    25177820.015    25177837.014
       205.000         141.000
   -849839.76749   -656122.04245  24977121.181    24977120.671    24977132.549
       210.000         148.000
  -4091099.13849  -3172064.51346  24068854.361    24068853.358    24068864.340
       226.000         178.000
   2170381.26049   1682509.67745  24923817.932    24923816.290    24923830.093
       217.000         160.000
     16022.12449     14256.42947  21262696.781    21262695.437    21262703.886
       243.000         209.000
  -4116290.42049  -3194296.17445  25146731.285    25146730.794    25146749.035
       203.000         137.000
  -4065305.96649  -3137713.78146  22585056.951    22585056.541    22585064.357
       237.000         187.000
 01 12  3 16 35 30.0010000  0  9G 1G20G29G 4G27G25G22G 3G13
  -2418515.54949  -1877978.88647  21019400.454    21019399.457    21019406.947
       241.000         206.000
    899755.34749    698947.76447  21277066.084    21277064.778    21277072.586
       242.000         207.000
   1916238.05449   1475765.37745  25187185.640    25187184.477    25187201.518
       202.000         143.000
   -861395.17149   -665126.46945  24974922.365    24974921.808    24974933.862
       210.000         146.000
  -4189118.96749  -3248443.62246  24050201.855    24050200.856    24050211.839
       229.000         177.000
   2222779.37849   1723338.99946  24933789.084    24933787.508    24933801.501
       221.000         163.000
     28756.55649     24179.26847  21265120.157    21265118.791    21265127.279
       242.000         209.000
  -4218308.85049  -3273790.84845  25127317.927    25127317.256    25127335.520
       207.000         142.000
  -4164704.73449  -3215167.39746  22566142.096    22566141.647    22566149.433
       236.000         187.000
 01 12  3 16 36  0.0010000  0  9G 1G20G29G 4G27G25G22G 3G13
  -2472438.67949  -1919996.96047  21009139.267    21009138.279    21009145.776
       241.000         207.000
    931852.15549    723958.14247  21283174.010    21283172.677    21283180.508
       242.000         206.000
   1965563.93649   1514200.93845  25196572.276    25196571.085    25196588.206
       206.000         142.000
   -872520.64549   -673795.86445  24972805.410    24972804.790    24972816.950
       212.000         146.000
  -4287004.26749  -3324717.89246  24031574.904    24031573.899    24031584.966
       227.000         178.000
   2275129.56849   1764131.00446  24943751.371    24943749.755    24943763.826
       220.000         163.000
     42070.79649     34553.91347  21267653.914    21267652.499    21267661.010
       243.000         209.000
  -4320312.56949  -3353274.08245  25107907.150    25107906.533    25107924.728
       205.000         141.000
  -4264025.94949  -3292560.57646  22547242.008    22547241.509    22547249.266
       236.000         187.000
 01 12  3 16 36 30.0010000  0  9G 1G20G29G 4G27G25G22G 3G13
  -2526159.96549  -1961857.74547  20998916.520    20998915.515    20998923.021
       242.000         206.000
    964418.58349    749334.46247  21289371.340    21289369.961    21289377.812
       244.000         206.000
   2014998.32749   1552721.03945  25205979.603    25205978.299    25205995.456
       208.000         142.000
   -883225.30549   -682137.31545  24970768.504    24970767.867    24970780.156
       212.000         148.000
  -4384762.24449  -3400892.94646  24012972.074    24012971.175    24012982.281
       226.000         177.000
   2327423.75149   1804879.36146  24953702.962    24953701.302    24953715.375
       222.000         164.000
     55955.70749     45373.23547  21270296.271    21270294.795    21270303.354
       244.000         209.000
  -4422305.85149  -3432749.13545  25088498.329    25088497.802    25088516.026
       204.000         137.000
  -4363275.82449  -3369898.17346  22528355.379    22528354.923    22528362.631
       236.000         187.000
 01 12  3 16 37  0.0010000  0  9G 1G20G29G 4G27G25G22G 3G13
  -2579683.58349  -2003564.50747  20988731.355    20988730.355    20988737.874
       242.000         206.000
    997447.67949    775071.30147  21295656.691    21295655.286    21295663.117
       244.000         206.000
   2064535.92649   1591321.54345  25215406.385    25215405.142    25215422.315
       206.000         144.000
   -893515.73049   -690155.99345  24968810.497    24968809.838    24968822.185
       212.000         149.000
  -4482398.06049  -3476972.82446  23994392.646    23994391.727    23994402.861
       226.000         178.000
   2379656.04949   1845579.50245  24963642.707    24963641.048    24963655.204
       220.000         158.000
     70404.42349     56631.88547  21273045.930    21273044.397    21273052.968
       243.000         209.000
  -4524291.07049  -3512217.90445  25069091.040    25069090.571    25069108.806
       204.000         143.000
  -4462458.46149  -3447183.37246  22509481.544    22509481.118    22509488.851
       236.000         187.000
 01 12  3 16 37 30.0010000  0  9G 1G20G29G 4G27G25G22G 3G13
  -2632986.49849  -2045099.28347  20978588.171    20978587.189    20978594.730
       241.000         206.000
   1030959.32849    801184.16447  21302033.839    21302032.435    21302040.252
       244.000         206.000
   2114198.35149   1630019.34945  25224857.002    25224855.772    25224872.988
       207.000         144.000
   -903371.72249   -697836.17145  24966935.132    24966934.396    24966946.822
       215.000         147.000
  -4579889.78749  -3552940.41146  23975840.595    23975839.704    23975850.821
       225.000         176.000
   2431847.91049   1886248.14945  24973574.759    24973573.111    24973587.237
       220.000         161.000
     85436.76849     68345.31947  21275906.602    21275905.046    21275913.629
       244.000         209.000
  -4626243.35349  -3591661.11245  25049689.932    25049689.568    25049707.695
       206.000         145.000
  -4561550.61349  -3524398.04946  22490624.923    22490624.500    22490632.305
       235.000         187.000
 01 12  3 16 38  0.0010000  0  9G 1G20G29G 4G27G25G22G 3G13
  -2686079.83149  -2086470.75647  20968484.896    20968483.907    20968491.448
       241.000         206.000
   1064939.41849    827662.04347  21308500.109    21308498.714    21308506.549
       244.000         206.000
   2163972.70749   1668804.39345  25234328.873    25234327.653    25234344.959
       204.000         143.000
   -912806.93749   -705188.49045  24965139.838    24965139.123    24965151.464
       214.000         147.000
  -4677249.73849  -3628805.30546  23957313.487    23957312.662    23957323.877
       225.000         176.000
   2483986.02449   1926874.85845  24983496.686    24983494.977    24983509.205
       218.000         162.000
    101038.62949     80502.52747  21278875.643    21278874.069    21278882.659
       243.000         208.000
  -4728172.14549  -3671086.00245  25030293.419    25030293.015    25030311.041
       206.000         143.000
  -4660563.52249  -3601550.97946  22471783.410    22471782.991    22471790.813
       236.000         187.000
 01 12  3 16 38 30.0010000  0  9G 1G20G29G 4G27G25G22G 3G13
  -2738942.24949  -2127662.29147  20958425.557    20958424.581    20958432.099
       242.000         206.000
   1099405.85449    854518.89247  21315058.946    21315057.541    21315065.425
       244.000         206.000
   2213878.95149   1707692.17545  25243825.851    25243824.657    25243841.996
       206.000         142.000
   -921803.07749   -712198.66645  24963428.080    24963427.386    24963439.709
       217.000         149.000
  -4774457.95049  -3704551.96546  23938815.308    23938814.544    23938825.808
       224.000         177.000
   2536090.11149   1967475.08745  24993411.840    24993410.296    24993424.635
       214.000         155.000
    117228.25649     93117.72747  21281956.475    21281954.923    21281963.536
       243.000         208.000
  -4830054.74349  -3750474.89145  25010905.674    25010905.334    25010923.342
       207.000         141.000
  -4759476.26849  -3678625.85347  22452960.884    22452960.518    22452968.397
       237.000         188.000
 01 12  3 16 39  0.0010000  0  9G 1G20G29G 4G27G25G22G 3G13
  -2791609.48549  -2168701.73847  20948403.328    20948402.369    20948409.907
       241.000         206.000
   1134319.94149    881724.56147  21321702.962    21321701.545    21321709.497
       243.000         205.000
   2263879.72249   1746653.63345  25253340.862    25253339.742    25253357.140
       208.000         144.000
   -930398.58049   -718896.63545  24961792.570    24961791.868    24961804.183
       215.000         146.000
  -4871551.33149  -3780209.14446  23920339.103    23920338.269    23920349.599
       226.000         178.000
   2588122.69549   2008019.59545  25003313.635    25003312.023    25003326.464
       217.000         160.000
    133966.88549    106160.72547  21285141.743    21285140.256    21285148.892
       243.000         208.000
  -4931925.05049  -3829854.25045  24991520.209    24991519.967    24991537.885
       206.000         141.000
  -4858324.26149  -3755650.27247  22434150.690    22434150.355    22434158.279
       237.000         188.000
 01 12  3 16 39 30.0010000  0  9G 1G20G29G 4G27G25G22G 3G13
  -2844042.61549  -2209558.76347  20938425.688    20938424.720    20938432.277
       241.000         206.000
   1169717.34449    909306.83247  21328438.897    21328437.520    21328445.518
       243.000         205.000
   2314012.63649   1785718.04045  25262880.944    25262879.941    25262897.402
       204.000         142.000
   -938557.34849   -725254.26945  24960240.186    24960239.471    24960251.711
       215.000         146.000
  -4968492.22749  -3855747.49546  23901891.991    23901891.085    23901902.424
       228.000         179.000
   2640121.09749   2048537.45845  25013208.866    25013207.276    25013221.825
       217.000         161.000
    151290.19949    119659.31647  21288438.338    21288436.857    21288445.501
       244.000         208.000
  -5033742.16249  -3909192.19045  24972145.033    24972144.693    24972162.670
       206.000         143.000
  -4957068.69249  -3832593.99047  22415360.296    22415359.936    22415367.877
       237.000         189.000
 01 12  3 16 40  0.0010000  0  9G 1G20G29G 4G27G25G22G 3G13
  -2896252.13049  -2250241.54647  20928490.547    20928489.605    20928497.218
       241.000         206.000
   1205584.51449    937255.15847  21335264.299    21335262.896    21335270.921
       243.000         205.000
   2364265.90249   1824876.23145  25272443.920    25272442.951    25272460.506
       206.000         142.000
   -946292.72149   -731281.99045  24958768.399    24958767.638    24958779.819
       213.000         146.000
  -5065292.27249  -3931176.10546  23883471.634    23883470.684    23883482.013
       228.000         177.000
   2692072.71949   2089018.86645  25023095.189    25023093.626    25023108.314
       210.000         155.000
    169184.62349    133602.91747  21291843.670    21291842.143    21291850.778
       244.000         208.000
  -5135514.92749  -3988495.59645  24952778.139    24952777.830    24952795.747
       206.000         140.000
  -5055719.93349  -3909465.08747  22396587.610    22396587.243    22396595.193
       237.000         190.000
 01 12  3 16 40 30.0010000  0  8G 1G20G 4G27G25G22G 3G13
  -2948265.13249  -2290771.19847  20918592.854    20918591.901    20918599.536
       242.000         207.000
   1241891.02249    965545.82347  21342173.256    21342171.864    21342179.933
       243.000         205.000
   -953634.61849   -737003.11845  24957371.407    24957370.707    24957382.812
       214.000         148.000
  -5161979.85049  -4006517.07846  23865072.609    23865071.662    23865082.927
       228.000         177.000
   2743948.34249   2129441.06045  25032967.213    25032965.508    25032980.264
       215.000         158.000
    187619.93849    147967.98947  21295351.935    21295350.360    21295358.960
       244.000         207.000
  -5237268.88049  -4067784.35545  24933415.018    24933414.588    24933432.483
       205.000         141.000
  -5154305.39649  -3986284.92547  22377827.446    22377827.086    22377834.998
       238.000         189.000
 01 12  3 16 41  0.0000000  0  8G 1G20G 4G27G25G22G 3G13
  -3000055.34349  -2331127.24547  20908737.586    20908736.610    20908744.234
       242.000         207.000
   1278657.06249    994194.56547  21349169.685    21349168.298    21349176.383
       243.000         206.000
   -960561.29449   -742400.74145  24956053.477    24956052.751    24956064.896
       216.000         151.000
  -5258528.45349  -4081749.76746  23846699.984    23846699.050    23846710.290
       227.000         178.000
   2795769.47149   2169820.76645  25042828.693    25042827.051    25042841.884
       214.000         158.000
    206616.88249    162770.67647  21298966.981    21298965.433    21298974.034
       243.000         207.000
  -5338974.32449  -4147035.31145  24914061.027    24914060.632    24914078.443
       205.000         140.000
  -5252797.10349  -4063031.70147  22359085.154    22359084.758    22359092.666
       238.000         190.000
 01 12  3 16 41 30.0000000  0  8G 1G20G 4G27G25G22G 3G13
  -3051626.25149  -2371312.40747  20898924.030    20898923.043    20898930.643
       241.000         207.000
   1315881.61949   1023200.59647  21356253.394    21356252.004    21356260.110
       243.000         206.000
   -967076.10849   -747477.40645  24954813.928    24954813.224    24954825.372
       216.000         151.000
  -5354945.73549  -4156880.14046  23828352.512    23828351.535    23828362.657
       229.000         181.000
   2847537.77449   2210159.31145  25052679.993    25052678.430    25052693.390
       214.000         155.000
    226173.30949    178009.32447  21302688.535    21302686.967    21302695.566
       243.000         206.000
  -5440636.16249  -4226252.30145  24894715.420    24894714.912    24894732.777
       206.000         143.000
  -5351201.61849  -4139710.54047  22340359.387    22340359.013    22340366.907
       238.000         190.000
 01 12  3 16 42  0.0000000  0  8G 1G20G 4G27G25G22G 3G13
  -3102946.66449  -2411302.37947  20889158.140    20889157.154    20889164.717
       241.000         207.000
   1353589.89849   1052583.55347  21363429.212    21363427.778    21363435.905
       244.000         206.000
   -973152.17649   -752212.21845  24953657.830    24953657.122    24953669.342
       216.000         154.000
  -5451200.35549  -4231883.75346  23810035.826    23810034.925    23810046.019
       229.000         183.000
   2899278.89349   2250476.73945  25062526.109    25062524.686    25062539.750
       212.000         156.000
    246315.00249    193704.02447  21306521.492    21306519.883    21306528.481
       243.000         206.000
  -5542219.82849  -4305408.34345  24875384.628    24875384.109    24875401.966
       205.000         144.000
  -5449486.12149  -4216295.86147  22321656.535    22321656.140    22321663.966
       237.000         189.000
 01 12  3 16 42 30.0000000  0  8G 1G20G 4G27G25G22G 3G13
  -3154057.54249  -2451129.07747  20879432.127    20879431.135    20879438.691
       242.000         207.000
   1391737.38549   1082308.75047  21370688.569    21370687.130    21370695.278
       244.000         206.000
   -978833.24049   -756639.19645  24952576.911    24952576.192    24952588.521
       217.000         153.000
  -5547334.48249  -4306793.48046  23791742.140    23791741.198    23791752.342
       227.000         179.000
   2950950.40449   2290739.84145  25072359.304    25072357.727    25072372.980
       215.000         157.000
    266997.65249    209820.24247  21310457.299    21310455.720    21310464.348
       243.000         205.000
  -5643764.69249  -4384534.16245  24856061.270    24856060.679    24856078.577
       208.000         146.000
  -5547691.62449  -4292819.62047  22302968.596    22302968.241    22302976.112
       239.000         190.000
 01 12  3 16 43  0.0000000  0  8G 1G20G 4G27G25G22G 3G13
  -3204948.70549  -2490784.56247  20869747.891    20869746.911    20869754.467
       241.000         207.000
   1430331.12349   1112381.67547  21378032.810    21378031.382    21378039.547
       244.000         205.000
   -984112.35249   -760752.98145  24951572.478    24951571.805    24951584.124
       216.000         151.000
  -5643339.07349  -4381602.25446  23773472.895    23773472.054    23773483.298
       225.000         179.000
   3002560.50649   2330955.12045  25082180.661    25082179.004    25082194.450
       219.000         157.000
    288228.33649    226363.50347  21314497.351    21314495.837    21314504.504
       242.000         205.000
  -5745258.70249  -4463620.34945  24836747.506    24836746.967    24836764.815
       205.000         145.000
  -5645807.87249  -4369273.84247  22284297.692    22284297.327    22284305.180
       239.000         189.000
 01 12  3 16 43 30.0000000  0  8G 1G20G 4G27G25G22G 3G13
  -3255611.38649  -2530262.01647  20860107.139    20860106.167    20860113.730
       242.000         208.000
   1469376.82949   1142806.78547  21385463.073    21385461.653    21385469.794
       243.000         205.000
   -988983.53649   -764548.87745  24950645.761    24950644.970    24950657.393
       216.000         150.000
  -5739206.40049  -4456304.08846  23755229.859    23755229.081    23755240.361
       228.000         179.000
   3054116.56349   2371128.30445  25091991.875    25091990.130    25092005.556
       214.000         153.000
    310012.45749    243338.00847  21318642.801    21318641.281    21318649.979
       243.000         205.000
  -5846691.44049  -4542658.78445  24817445.478    24817444.986    24817462.760
       205.000         144.000
  -5743826.01249  -4445651.60347  22265645.421    22265645.089    22265653.000
       238.000         190.000
 01 12  3 16 44  0.0000000  0  8G 1G20G 4G27G25G22G 3G13
  -3306059.21649  -2569572.04447  20850507.271    20850506.298    20850513.884
       242.000         207.000
   1508857.19149   1173570.58447  21392976.094    21392974.638    21392982.751
       244.000         205.000
   -993463.35649   -768039.82945  24949793.537    24949792.684    24949805.170
       214.000         150.000
  -5834951.64849  -4530910.81646  23737010.199    23737009.387    23737020.604
       227.000         181.000
   3105603.09649   2411247.32045  25101789.584    25101787.996    25101803.394
       210.000         152.000
    332333.17049    260730.63947  21322890.387    21322888.867    21322897.544
       243.000         205.000
  -5948075.19749  -4621659.00845  24798152.805    24798152.183    24798169.975
       207.000         146.000
  -5841759.72649  -4521963.60647  22247009.243    22247008.922    22247016.782
       238.000         189.000
 01 12  3 16 44 30.0000000  0  8G 1G20G 4G27G25G22G 3G13
  -3356271.48349  -2608698.52247  20840952.193    20840951.239    20840958.850
       242.000         207.000
   1548789.32549   1204686.41347  21400575.048    21400573.584    21400581.681
       244.000         205.000
   -997534.46149   -771212.29845  24949019.056    24949018.206    24949030.648
       214.000         150.000
  -5930555.52949  -4605407.38246  23718817.495    23718816.641    23718827.796
       228.000         181.000
   3157038.57849   2451326.56045  25111577.665    25111576.123    25111591.623
       214.000         156.000
    355207.57749    278554.72247  21327243.375    21327241.830    21327250.489
       243.000         204.000
  -6049387.13149  -4700603.25745  24778873.863    24778873.183    24778890.859
       206.000         147.000
  -5939588.59349  -4598193.90247  22228393.004    22228392.705    22228400.562
       239.000         188.000
 01 12  3 16 45  0.0000000  0  8G 1G20G 4G27G25G22G 3G13
  -3406244.02949  -2647638.20747  20831442.810    20831441.832    20831449.436
       242.000         208.000
   1589174.52249   1236155.27847  21408260.138    21408258.727    21408266.847
       244.000         205.000
  -1001195.55149   -774065.29545  24948322.528    24948321.627    24948334.095
       213.000         149.000
  -6026014.96849  -4679791.37446  23700652.129    23700651.306    23700662.513
       228.000         182.000
   3208425.79049   2491368.13645  25121356.558    25121355.024    25121370.645
       217.000         151.000
    378636.64149    296811.01647  21331701.816    21331700.320    21331708.969
       242.000         204.000
  -6150621.17849  -4779486.77845  24759609.475    24759608.901    24759626.597
       205.000         147.000
  -6037307.95549  -4674338.86547  22209797.604    22209797.312    22209805.188
       239.000         191.000
 01 12  3 16 45 30.0000000  0  8G 1G20G 4G27G25G22G 3G13
  -3455986.26549  -2686398.43547  20821977.230    20821976.265    20821983.839
       242.000         207.000
   1629999.59049   1267966.89247  21416028.944    21416027.572    21416035.718
       244.000         204.000
  -1004459.14649   -776608.53945  24947701.610    24947700.676    24947713.256
       215.000         150.000
  -6121340.77749  -4754071.24746  23682512.218    23682511.410    23682522.634
       227.000         180.000
   3259753.64949   2531363.54645  25131124.318    25131122.705    25131138.314
       207.000         149.000
    402607.45349    315489.45247  21336263.389    21336261.895    21336270.541
       242.000         204.000
  -6251785.37549  -4858315.82345  24740358.469    24740357.923    24740375.602
       208.000         149.000
  -6134927.36849  -4750405.96547  22191221.216    22191220.939    22191228.786
       238.000         190.000
 01 12  3 16 46  0.0000000  0  8G 1G20G 4G27G25G22G 3G13
  -3505519.94149  -2724996.15047  20812551.367    20812550.370    20812557.938
       242.000         207.000
   1671239.66349   1300101.89447  21423876.750    21423875.396    21423883.563
       244.000         204.000
  -1007349.82749   -778861.21245  24947151.706    24947150.741    24947163.350
       217.000         154.000
  -6216555.74849  -4828264.73246  23664393.447    23664392.629    23664403.851
       228.000         181.000
   3310998.80449   2571294.46545  25140876.206    25140874.611    25140890.322
       209.000         149.000
    427095.16949    334570.67647  21340923.386    21340921.847    21340930.507
       242.000         204.000
  -6352899.58749  -4937105.89645  24721117.101    24721116.492    24721134.125
       210.000         150.000
  -6232468.39949  -4826411.98647  22172659.827    22172659.513    22172667.379
       238.000         191.000
 01 12  3 16 46 30.0000000  0  8G 1G20G 4G27G25G22G 3G13
  -3554815.56749  -2763408.37147  20803170.743    20803169.773    20803177.336
       242.000         207.000
   1712920.74349   1332580.52947  21431808.481    21431807.125    21431815.339
       243.000         204.000
  -1009841.48449   -780802.95945  24946677.706    24946676.724    24946689.408
       216.000         154.000
  -6311631.96949  -4902350.13246  23646301.199    23646300.310    23646311.347
       228.000         180.000
   3362188.78249   2611182.39645  25150617.574    25150616.040    25150631.840
       209.000         156.000
    452125.60049    354074.80347  21345686.638    21345685.081    21345693.754
       242.000         204.000
  -6453932.41349  -5015832.52645  24701891.061    24701890.536    24701908.138
       210.000         150.000
  -6329901.50349  -4902333.91547  22154118.917    22154118.608    22154126.437
       239.000         191.000
 01 12  3 16 47  0.0000000  0  8G 1G20G 4G27G25G22G 3G13
  -3603866.30849  -2801629.77347  20793836.768    20793835.763    20793843.334
       241.000         207.000
   1755046.11349   1365405.35947  21439824.696    21439823.402    21439831.681
       243.000         204.000
  -1011930.24149   -782430.74545  24946280.484    24946279.428    24946292.155
       217.000         156.000
  -6406563.86849  -4976323.04546  23628236.318    23628235.439    23628246.399
       230.000         182.000
   3413328.92449   2651031.43545  25160349.460    25160347.981    25160363.897
       208.000         152.000
    477702.18049    374004.50447  21350553.828    21350552.242    21350560.913
       242.000         204.000
  -6554875.40649  -5094489.13545  24682682.198    24682681.625    24682699.154
       211.000         151.000
  -6427219.90149  -4978166.46047  22135599.807    22135599.536    22135607.369
       239.000         191.000
 01 12  3 16 47 30.0000000  0  8G 1G20G 4G27G25G22G 3G13
  -3652714.89149  -2839693.64547  20784541.195    20784540.221    20784547.793
       241.000         206.000
   1797569.52649   1398540.35147  21447916.738    21447915.420    21447923.763
       243.000         204.000
  -1013662.05249   -783780.38745  24945951.090    24945950.071    24945962.817
       216.000         155.000
  -6501395.56249  -5050217.85146  23610190.387    23610189.553    23610200.569
       228.000         181.000
   3464374.57049   2690806.90845  25170063.252    25170061.961    25170077.811
       205.000         143.000
    503778.62649    394323.72147  21355516.076    21355514.509    21355523.180
       241.000         203.000
  -6655769.84649  -5173107.89645  24663482.555    24663481.985    24663499.403
       211.000         153.000
  -6524466.42549  -5053943.00947  22117094.462    22117094.172    22117102.017
       239.000         192.000
 01 12  3 16 48  0.0000000  0  8G 1G20G 4G27G25G22G 3G13
  -3701306.08549  -2877556.96247  20775294.607    20775293.655    20775301.208
       241.000         207.000
   1840542.80149   1432025.88747  21456094.393    21456093.065    21456101.435
       243.000         204.000
  -1014984.51649   -784811.05945  24945699.512    24945698.543    24945711.363
       215.000         153.000
  -6596073.07549  -5123992.50646  23592173.789    23592173.007    23592184.139
       227.000         182.000
   3515379.32049   2730550.46445  25179769.388    25179768.077    25179784.042
       214.000         157.000
    530406.82749    415072.87847  21360583.305    21360581.767    21360590.450
       241.000         204.000
  -6756558.63649  -5251644.30745  24644302.881    24644302.423    24644319.711
       210.000         153.000
  -6621585.43149  -5129620.20147  22098613.366    22098613.062    22098620.888
       239.000         193.000
 01 12  3 16 48 30.0000000  0  8G 1G20G 4G27G25G22G 3G13
  -3749639.11749  -2915219.10847  20766097.219    20766096.236    20766103.781
       241.000         206.000
   1883963.20649   1465859.84047  21464357.132    21464355.787    21464364.180
       243.000         204.000
  -1015900.53749   -785525.03045  24945525.315    24945524.328    24945537.220
       212.000         150.000
  -6690596.94949  -5197647.44646  23574186.427    23574185.706    23574196.935
       231.000         183.000
   3566342.40449   2770261.57445  25189467.764    25189466.329    25189482.394
       211.000         155.000
    557583.92449    436249.75647  21365754.992    21365753.451    21365762.217
       241.000         204.000
  -6857239.24149  -5330096.41745  24625143.754    24625143.374    24625160.729
       208.000         154.000
  -6718576.13649  -5205197.40147  22080156.769    22080156.398    22080164.226
       239.000         193.000
 01 12  3 16 49  0.0000000  0  8G 1G20G 4G27G25G22G 3G13
  -3797743.64949  -2952703.19847  20756943.283    20756942.298    20756949.834
       241.000         206.000
   1927797.61049   1500016.38847  21472698.599    21472697.284    21472705.710
       243.000         203.000
  -1016442.59749   -785947.61345  24945422.145    24945421.270    24945434.286
       211.000         148.000
  -6784998.37949  -5271206.98146  23556222.515    23556221.761    23556232.964
       230.000         182.000
   3617232.14349   2809915.55245  25199151.944    25199150.586    25199166.840
       208.000         151.000
    585276.84749    457828.57947  21371024.829    21371023.320    21371032.147
       241.000         204.000
  -6957839.95849  -5408486.30245  24605999.895    24605999.559    24606016.896
       210.000         154.000
  -6815468.21449  -5280697.75247  22061718.865    22061718.475    22061726.283
       240.000         194.000
 01 12  3 16 49 30.0000000  0  8G 1G20G 4G27G25G22G 3G13
  -3845616.47249  -2990006.73947  20747833.470    20747832.442    20747839.985
       241.000         207.000
   1972045.72949   1534495.30947  21481118.830    21481117.512    21481125.982
       244.000         204.000
  -1016610.72249   -786078.80245  24945390.245    24945389.391    24945402.564
       212.000         149.000
  -6879275.21849  -5344669.42246  23538282.336    23538281.511    23538292.711
       229.000         181.000
   3668050.56249   2849513.91245  25208822.726    25208821.221    25208837.670
       212.000         153.000
    613485.22149    479809.05047  21376392.748    21376391.266    21376400.143
       241.000         204.000
  -7058355.35649  -5486809.70545  24586872.350    24586871.945    24586889.329
       211.000         152.000
  -6912258.14049  -5356118.49747  22043300.396    22043299.985    22043307.788
       239.000         194.000
 01 12  3 16 50  0.0000000  0  8G 1G20G 4G27G25G22G 3G13
  -3893217.54149  -3027098.52447  20738775.306    20738774.316    20738781.868
       241.000         206.000
   2016744.06749   1569325.05447  21489624.773    21489623.422    21489631.942
       243.000         203.000
  -1016368.09749   -785889.94345  24945436.561    24945435.723    24945448.832
       213.000         145.000
  -6973388.78649  -5418004.62046  23520373.078    23520372.259    23520383.450
       228.000         179.000
   3718835.72749   2889086.37645  25218486.966    25218485.569    25218502.089
       213.000         145.000
    642245.74649    502219.77547  21381865.772    21381864.304    21381873.184
       242.000         203.000
  -7158743.54549  -5565034.00645  24567768.805    24567768.501    24567785.969
       211.000         152.000
  -7008905.74149  -5431428.32347  22024908.929    22024908.567    22024916.399
       239.000         194.000
 01 12  3 16 50 30.0000000  0  8G 1G20G 4G27G25G22G 3G13
  -3940585.94849  -3064009.01347  20729761.433    20729760.447    20729768.020
       241.000         207.000
   2061849.58349   1604472.08047  21498208.220    21498206.816    21498215.357
       243.000         203.000
  -1015757.17649   -785414.07845  24945552.963    24945552.110    24945565.246
       215.000         147.000
  -7067379.71449  -5491244.25746  23502487.179    23502486.338    23502497.488
       231.000         180.000
   3769546.57149   2928600.94845  25228137.320    25228135.799    25228152.422
       208.000         144.000
    671515.39049    525027.21347  21387435.651    21387434.203    21387443.113
       241.000         203.000
  -7259042.35549  -5643188.70445  24548682.335    24548682.055    24548699.541
       211.000         150.000
  -7105450.17849  -5506657.75947  22006537.091    22006536.763    22006544.661
       239.000         194.000
 01 12  3 16 51  0.0000000  0  8G 1G20G 4G27G25G22G 3G13
  -3987697.19349  -3100719.12047  20720796.524    20720795.536    20720803.088
       242.000         206.000
   2107383.62949   1639953.01347  21506873.190    21506871.747    21506880.326
       243.000         203.000
  -1014756.74649   -784634.69345  24945743.502    24945742.672    24945755.807
       217.000         149.000
  -7161224.69549  -5564370.18146  23484629.147    23484628.265    23484639.327
       232.000         183.000
   3820206.17249   2968075.56445  25237777.813    25237776.266    25237792.976
       211.000         144.000
    701315.23449    548247.77747  21393106.446    21393104.980    21393113.916
       241.000         203.000
  -7359225.45549  -5721253.29345  24529617.863    24529617.628    24529635.140
       210.000         149.000
  -7201866.87249  -5581787.66447  21988189.620    21988189.299    21988197.193
       239.000         195.000
 01 12  3 16 51 30.0000000  0  8G 1G20G 4G27G25G22G 3G13
  -4034557.31349  -3137233.53747  20711879.430    20711878.413    20711885.934
       242.000         207.000
   2153336.63749   1675760.41947  21515617.867    21515616.415    21515625.015
       243.000         203.000
  -1013375.75949   -783558.78145  24946006.456    24946005.622    24946018.770
       217.000         149.000
  -7254931.10349  -5637388.12246  23466797.521    23466796.583    23466807.634
       232.000         185.000
   3870806.76849   3007504.21945  25247407.093    25247405.591    25247422.330
       210.000         144.000
    731635.65349    571873.98947  21398876.298    21398874.830    21398883.802
       241.000         203.000
  -7459297.03549  -5799231.05145  24510574.686    24510574.434    24510591.896
       212.000         150.000
  -7298161.64149  -5656822.54847  21969865.343    21969865.029    21969872.948
       239.000         195.000
 01 12  3 16 52  0.0000000  0  8G 1G20G 4G27G25G22G 3G13
  -4081159.03549  -3173546.60247  20703011.400    20703010.438    20703017.952
       241.000         206.000
   2199711.91649   1711896.85847  21524442.928    21524441.453    21524450.074
       243.000         204.000
  -1011610.40149   -782183.36845  24946342.535    24946341.738    24946354.876
       214.000         151.000
  -7348493.01449  -5710293.45246  23448993.364    23448992.357    23449003.447
       228.000         182.000
   3921354.13849   3046891.40445  25257026.220    25257024.720    25257041.514
       203.000         133.000
    762480.24049    595908.63647  21404745.890    21404744.436    21404753.425
       241.000         203.000
  -7559248.07249  -5877114.91545  24491554.420    24491554.257    24491571.589
       213.000         151.000
  -7394327.07649  -5731756.65347  21951565.648    21951565.361    21951573.309
       240.000         195.000
 01 12  3 16 52 30.0000000  0  8G 1G20G 4G27G25G22G 3G13
  -4127504.46949  -3209659.96947  20694192.193    20694191.234    20694198.749
       242.000         206.000
   2246503.84549   1748357.95747  21533347.258    21533345.768    21533354.433
       242.000         203.000
  -1009466.30649   -780512.84445  24946750.755    24946749.929    24946763.095
       213.000         151.000
  -7441914.17449  -5783089.10546  23431215.672    23431214.811    23431225.957
       228.000         179.000
   3971844.37649   3086234.06045  25266634.301    25266632.938    25266649.818
       216.000         142.000
    793843.24549    620347.23447  21410714.157    21410712.690    21410721.694
       241.000         203.000
  -7659079.25549  -5954905.43045  24472557.111    24472556.898    24472574.165
       217.000         153.000
  -7490365.22849  -5806591.57247  21933290.222    21933289.924    21933297.871
       240.000         196.000
 01 12  3 16 53  0.0000000  0  8G 1G20G 4G27G25G22G 3G13
  -4173576.36549  -3245560.18547  20685424.990    20685424.063    20685431.606
       241.000         207.000
   2293726.03749   1785154.32447  21542333.413    21542331.947    21542340.654
       242.000         203.000
  -1006929.40249   -778536.24245  24947233.627    24947232.822    24947246.021
       211.000         149.000
  -7535178.61949  -5855762.66446  23413467.892    23413467.137    23413478.138
       230.000         179.000
   4022293.08749   3125544.35245  25276234.830    25276233.369    25276250.348
       211.000         140.000
    825738.11349    645200.27347  21416783.625    21416782.145    21416791.172
       241.000         203.000
  -7758771.56449  -6032587.77245  24453586.350    24453586.019    24453603.193
       217.000         155.000
  -7586258.63149  -5881313.70347  21915042.369    21915042.059    21915049.990
       240.000         197.000
 01 12  3 16 53 30.0000000  0  8G 1G20G 4G27G25G22G 3G13
  -4219393.06149  -3281261.54247  20676706.429    20676705.464    20676713.036
       241.000         206.000
   2341356.68849   1822268.97347  21551397.355    21551395.869    21551404.604
       243.000         203.000
  -1004021.26549   -776270.38245  24947787.188    24947786.323    24947799.592
       212.000         148.000
  -7628305.98049  -5928329.42446  23395746.419    23395745.621    23395756.397
       230.000         181.000
   4072680.30949   3164806.76145  25285823.583    25285822.137    25285838.978
       213.000         141.000
    858143.07349    670450.78447  21422950.167    21422948.668    21422957.726
       241.000         203.000
  -7858341.51749  -6110174.83045  24434638.834    24434638.496    24434655.498
       214.000         152.000
  -7682025.46549  -5955937.22047  21896818.576    21896818.253    21896826.199
       240.000         196.000
 01 12  3 16 54  0.0000000  0  8G 1G20G 4G27G25G22G 3G13
  -4264963.77649  -3316771.23247  20668034.604    20668033.661    20668041.259
       241.000         206.000
   2389382.79649   1859691.77147  21560536.524    21560535.035    21560543.831
       243.000         203.000
  -1000754.42349   -773725.00945  24948409.005    24948408.124    24948421.428
       212.000         148.000
  -7721306.79849  -6000797.54846  23378048.877    23378048.117    23378058.958
       228.000         183.000
   4122995.38749   3204012.89945  25295398.623    25295397.046    25295413.960
       216.000         144.000
    891045.02049    696088.55247  21429211.235    21429209.785    21429218.867
       241.000         203.000
  -7957796.49649  -6187672.30045  24415713.154    24415712.759    24415729.704
       215.000         149.000
  -7777674.71449  -6030469.10747  21878617.163    21878616.829    21878624.784
       240.000         197.000
 01 12  3 16 54 30.0000000  0  8G 1G20G 4G27G25G22G 3G13
  -4310265.07649  -3352070.98347  20659414.071    20659413.136    20659420.746
       241.000         206.000
   2437824.15349   1897438.13347  21569754.717    21569753.241    21569762.095
       243.000         203.000
   -997108.92349   -770884.55045  24949102.857    24949102.000    24949115.288
       216.000         148.000
  -7814159.09749  -6073149.92546  23360379.525    23360378.830    23360389.824
       230.000         184.000
   4173259.86749   3243179.62845  25304964.036    25304962.479    25304979.425
       219.000         151.000
    924463.75149    722129.00747  21435570.697    21435569.242    21435578.376
       241.000         203.000
  -8057111.20049  -6265060.48045  24396814.308    24396813.736    24396830.621
       214.000         149.000
  -7873183.01249  -6104891.16447  21860442.497    21860442.207    21860450.197
       240.000         197.000
 01 12  3 16 55  0.0000000  0  8G 1G20G 4G27G25G22G 3G13
  -4355313.11849  -3387173.38747  20650841.685    20650840.784    20650848.402
       240.000         206.000
   2486660.72149   1935492.45147  21579048.117    21579046.640    21579055.553
       242.000         203.000
   -993104.19849   -767764.15345  24949865.076    24949864.302    24949877.489
       216.000         147.000
  -7906880.29049  -6145400.15346  23342735.292    23342734.564    23342745.597
       232.000         184.000
   4223456.40149   3282293.37545  25314516.390    25314514.823    25314532.011
       215.000         149.000
    958379.48449    748556.73047  21442024.675    21442023.273    21442032.428
       240.000         203.000
  -8156299.95549  -6342350.54745  24377939.355    24377938.669    24377955.504
       214.000         146.000
  -7968566.20549  -6179215.73947  21842291.726    21842291.405    21842299.429
       240.000         197.000
 01 12  3 16 55 30.0000000  0  8G 1G20G 4G27G25G22G 3G13
  -4400092.71749  -3422066.61247  20642320.396    20642319.527    20642327.152
       240.000         206.000
   2535904.12449   1973863.78747  21588418.942    21588417.475    21588426.408
       242.000         203.000
   -988728.41549   -764354.59245  24950697.942    24950697.157    24950710.342
       216.000         147.000
  -7999456.73549  -6217537.62546  23325118.562    23325117.833    23325128.756
       231.000         179.000
   4273597.92849   3321364.32245  25324058.320    25324056.758    25324073.983
       215.000         148.000
    992803.50349    775380.52047  21448575.438    21448574.033    21448583.207
       241.000         202.000
  -8255346.28649  -6419529.60445  24359091.451    24359090.796    24359107.483
       215.000         146.000
  -8063808.69449  -6253430.67047  21824167.688    21824167.365    21824175.381
       241.000         197.000
 01 12  3 16 56  0.0000000  0  8G 1G20G 4G27G25G22G 3G13
  -4444619.91849  -3456763.17047  20633847.153    20633846.294    20633853.925
       240.000         205.000
   2585534.67349   2012536.78947  21597863.415    21597861.974    21597870.964
       241.000         203.000
   -984001.23249   -760671.25745  24951597.590    24951596.846    24951610.062
       215.000         148.000
  -8091905.93849  -6289575.95546  23307526.036    23307525.299    23307536.039
       232.000         181.000
   4323666.88149   3360378.65245  25333586.450    25333584.853    25333602.275
       214.000         152.000
   1027716.07249    802584.98947  21455219.222    21455217.769    21455226.916
       241.000         201.000
  -8354264.21449  -6496608.59545  24340268.013    24340267.304    24340283.906
       215.000         148.000
  -8158926.58249  -6327548.51447  21806067.368    21806067.038    21806075.050
       241.000         197.000
 01 12  3 16 56 30.0000000  0  8G 1G20G 4G27G25G22G 3G13
  -4488895.79749  -3491263.88647  20625421.705    20625420.881    20625428.545
       241.000         206.000
   2635547.64249   2051507.77347  21607380.689    21607379.242    21607388.287
       241.000         202.000
   -978926.64149   -756717.22545  24952563.356    24952562.701    24952575.916
       210.000         147.000
  -8184230.22949  -6361516.93946  23289957.253    23289956.548    23289967.209
       230.000         183.000
   4373660.70949   3399334.50045  25343100.250    25343098.668    25343116.264
       218.000         155.000
   1063112.57049    830166.54347  21461955.104    21461953.590    21461962.681
       241.000         200.000
  -8453052.96049  -6573586.88545  24321469.322    24321468.456    24321484.976
       215.000         148.000
  -8253920.81949  -6401570.00547  21787990.552    21787990.254    21787998.256
       241.000         197.000
 01 12  3 16 57  0.0000000  0  8G 1G20G 4G27G25G22G 3G13
  -4532900.11549  -3525553.00047  20617048.033    20617047.169    20617054.855
       241.000         207.000
   2685959.39949   2090789.50147  21616973.821    21616972.397    21616981.497
       240.000         202.000
   -973488.14749   -752479.61045  24953598.404    24953597.746    24953611.048
       206.000         145.000
  -8276410.96049  -6433346.03446  23272415.714    23272415.073    23272425.843
       231.000         186.000
   4423598.42449   3438246.61845  25352603.470    25352601.817    25352619.599
       213.000         154.000
   1099009.23949    858137.83947  21468786.145    21468784.582    21468793.645
       240.000         200.000
  -8551690.59249  -6650447.41345  24302699.329    24302698.324    24302714.778
       214.000         151.000
  -8348770.94849  -6475479.20847  21769941.160    21769940.865    21769948.882
       241.000         197.000
 01 12  3 16 57 30.0000000  0  8G 1G20G 4G27G25G22G 3G13
  -4576624.81449  -3559624.22747  20608727.591    20608726.682    20608734.378
       241.000         207.000
   2736774.37049   2130385.42247  21626643.742    21626642.282    21626651.422
       241.000         202.000
   -967681.13549   -747954.92845  24954703.633    24954702.824    24954716.311
       206.000         144.000
  -8368441.20349  -6505057.87846  23254902.955    23254902.267    23254913.158
       230.000         186.000
   4473486.53049   3477120.08145  25362097.210    25362095.587    25362113.364
       213.000         151.000
   1135410.53349    886502.33847  21475713.148    21475711.588    21475720.670
       239.000         199.000
  -8650167.38849  -6727182.57745  24283959.717    24283958.820    24283975.335
       213.000         149.000
  -8443468.36649  -6549269.41347  21751920.838    21751920.529    21751928.561
       241.000         197.000
 01 12  3 16 58  0.0000000  0  9G 1G20G 4G27G25G22G 3G31G13
  -4620087.46049  -3593491.26147  20600456.948    20600456.054    20600463.758
       241.000         206.000
   2787971.37449   2170279.03147  21636386.319    21636384.877    21636394.035
       241.000         202.000
   -961526.51549   -743159.33845  24955874.964    24955874.119    24955887.718
       210.000         146.000
  -8460339.99149  -6576667.28346  23237415.204    23237414.497    23237425.444
       231.000         186.000
   4523305.75449   3515939.88145  25371577.927    25371576.198    25371594.006
       215.000         149.000
   1172294.93249    915243.27947  21482732.087    21482730.540    21482739.623
       240.000         199.000
  -8748498.89249  -6803804.48045  24265247.872    24265247.021    24265263.487
       214.000         149.000
   -261086.49253                  25229158.130
       207.000          90.000
  -8538030.43549  -6622954.14447  21733926.277    21733925.982    21733934.002
       240.000         197.000
 01 12  3 16 58 30.0000000  0  9G 1G20G 4G27G25G22G 3G31G13
  -4663275.76649  -3627144.52747  20592238.553    20592237.636    20592245.328
       240.000         206.000
   2839558.58849   2210476.69647  21646203.133    21646201.706    21646210.892
       241.000         202.000
   -955015.74249   -738086.19545  24957114.120    24957113.251    24957126.795
       212.000         145.000
  -8552096.52749  -6648165.86346  23219954.564    23219953.843    23219964.692
       234.000         186.000
   4573066.52149   3554714.12145  25381047.433    25381045.716    25381063.669
       208.000         148.000
   1209670.94849    944367.29147  21489844.610    21489843.066    21489852.135
       240.000         200.000
  -8846671.34449  -6880302.42945  24246566.248    24246565.384    24246581.962
       213.000         149.000
    -72677.12043                  25206815.672
       196.000          74.000
  -8632445.03249  -6696523.96647  21715959.751    21715959.486    21715967.526
       241.000         197.000
 01 12  3 16 59  0.0000000  0  9G 1G20G 4G27G25G22G 3G31G13
  -4706179.73049  -3660576.22647  20584074.196    20584073.304    20584081.017
       241.000         206.000
   2891542.15149   2250983.19747  21656095.403    21656093.965    21656103.155
       242.000         201.000
   -948142.08849   -732730.24445  24958422.228    24958421.406    24958435.077
       212.000         142.000
  -8643702.23549  -6719546.92146  23202522.676    23202521.857    23202532.611
       233.000         185.000
   4622777.49049   3593449.52745  25390507.394    25390505.672    25390523.778
       206.000         139.000
   1247544.58949    973879.05347  21497051.846    21497050.283    21497059.380
       240.000         200.000
  -8944672.97049  -6956667.21045  24227917.083    24227916.227    24227932.875
       214.000         150.000
   -164272.07443                  25184446.800
       195.000          88.000
  -8726701.65049  -6769970.69547  21698023.386    21698023.055    21698031.101
       241.000         197.000
 01 12  3 16 59 30.0000000  0  8G 1G20G 4G27G22G 3G31G13
  -4748797.64149  -3693785.02947  20575964.285    20575963.400    20575971.132
       240.000         206.000
   2943920.30249   2291797.17247  21666062.830    21666061.331    21666070.529
       241.000         201.000
   -940907.31849   -727092.93145  24959799.093    24959798.297    24959812.040
       208.000         136.000
  -8735156.70649  -6790810.12446  23185119.313    23185118.602    23185129.370
       229.000         185.000
   1285914.02549   1003777.14347  21504353.458    21504351.866    21504360.994
       241.000         200.000
  -9042500.14949  -7032896.02945  24209301.069    24209300.325    24209316.956
       213.000         151.000
   -255972.46643                  25162052.033
       198.000          88.000
  -8820798.26349  -6843292.74047  21680117.406    21680117.077    21680125.137
       241.000         197.000
 01 12  3 17  0  0.0000000  0  8G 1G20G 4G27G22G 3G31G13
  -4791140.57249  -3726779.56247  20567906.739    20567905.831    20567913.566
       241.000         206.000
   2996678.21349   2332907.05847  21676102.516    21676100.966    21676110.167
       241.000         200.000
   -933325.71149   -721185.33545  24961241.929    24961241.243    24961255.020
       206.000         138.000
  -8826472.32649  -6861965.12146  23167742.492    23167741.792    23167752.646
       231.000         187.000
   1324764.43849   1034050.01247  21511746.602    21511744.974    21511754.141
       240.000         200.000
  -9140162.24749  -7108996.17945  24190716.498    24190715.853    24190732.517
       214.000         152.000
    -63754.80943                  25139630.059
       199.000          74.000
  -8914745.79849  -6916498.61947  21662239.808    21662239.453    21662247.496
       241.000         197.000
 01 12  3 17  0 30.0000000  0  8G 1G20G 4G27G22G 3G31G13
  -4833203.41049  -3759555.84747  20559902.473    20559901.577    20559909.312
       240.000         206.000
   3049817.02949   2374313.75347  21686214.667    21686213.080    21686222.300
       241.000         200.000
   -925396.05249   -715006.58745  24962751.027    24962750.322    24962764.249
       207.000         143.000
  -8917645.51549  -6933009.12946  23150392.848    23150392.127    23150403.085
       232.000         187.000
   1364096.82449   1064698.44347  21519231.418    21519229.805    21519239.009
       241.000         201.000
  -9237652.45249  -7184962.35745  24172164.591    24172164.054    24172180.732
       213.000         153.000
   -155676.40444                  25117181.467
       198.000         117.000
  -9008538.92249  -6989584.17747  21644391.490    21644391.206    21644399.270
       241.000         197.000
 01 12  3 17  1  0.0000000  0  8G 1G20G 4G27G22G 3G31G13
  -4875000.07949  -3792124.72447  20551948.864    20551947.973    20551955.693
       240.000         206.000
   3103318.96849   2416003.40047  21696395.861    21696394.285    21696403.535
       241.000         200.000
   -917135.64649   -708570.08245  24964323.019    24964322.332    24964336.317
       209.000         149.000
  -9008691.74349  -7003954.21946  23133067.369    23133066.604    23133077.580
       231.000         185.000
   1403893.36849   1095708.56147  21526804.608    21526802.972    21526812.225
       240.000         202.000
  -9334983.30449  -7260804.33845  24153642.997    24153642.484    24153659.226
       214.000         152.000
   -247716.26443                  25094704.124
       202.000          84.000
  -9102191.10249  -7062559.90247  21626570.049    21626569.797    21626577.832
       241.000         197.000
 01 12  3 17  1 30.0000000  0  8G 1G20G 4G27G22G 3G31G13
  -4916501.89149  -3824463.84647  20544051.437    20544050.481    20544058.165
       241.000         206.000
   3157208.86049   2457995.34247  21706650.863    21706649.309    21706658.597
       240.000         200.000
   -908519.51849   -701856.38945  24965962.736    24965962.038    24965976.128
       213.000         151.000
  -9099583.79649  -7074779.19246  23115771.126    23115770.376    23115781.326
       231.000         183.000
   1444178.88849   1127099.68247  21534470.841    21534469.188    21534478.519
       240.000         202.000
  -9432124.53649  -7336498.54945  24135157.430    24135156.992    24135173.758
       211.000         150.000
    -54765.62543                  25072203.669
       204.000          74.000
  -9195673.80149  -7135403.57347  21608780.949    21608780.655    21608788.657
       241.000         197.000
 01 12  3 17  2  0.0000000  0  8G 1G20G 4G27G22G 3G31G13
  -4957715.69249  -3856578.54147  20536208.730    20536207.793    20536215.463
       241.000         206.000
   3211475.98649   2500281.23547  21716977.590    21716976.112    21716985.444
       240.000         199.000
   -899557.75149   -694873.37745  24967668.185    24967667.524    24967681.741
       215.000         152.000
  -9190329.79649  -7145490.35346  23098502.575    23098501.906    23098512.835
       229.000         185.000
   1484942.59549   1158863.42347  21542228.004    21542226.381    21542235.806
       240.000         202.000
  -9529080.74449  -7412048.58845  24116707.135    24116706.707    24116723.466
       213.000         153.000
   -146998.13443                  25049679.331
       197.000          91.000
  -9288993.52549  -7208120.24047  21591022.814    21591022.508    21591030.493
       242.000         197.000
 01 12  3 17  2 30.0000000  0  8G 1G20G 4G27G22G 3G31G13
  -4998645.70949  -3888472.11147  20528420.113    20528419.135    20528426.778
       242.000         206.000
   3266112.55149   2542855.00047  21727374.672    21727373.219    21727382.582
       241.000         199.000
   -890258.27549   -687627.19545  24969437.930    24969437.289    24969451.570
       213.000         152.000
  -9280935.29949  -7216092.02247  23081260.882    23081260.241    23081271.217
       233.000         188.000
   1526176.68349   1190993.68847  21550074.702    21550073.081    21550082.598
       239.000         201.000
  -9625854.31649  -7487456.32345  24098291.586    24098291.184    24098307.958
       212.000         153.000
   -239331.88343                  25027130.315
       206.000          85.000
  -9382153.64049  -7280712.54047  21573295.067    21573294.759    21573302.714
       243.000         197.000
 01 12  3 17  3  0.0000000  0  8G 1G20G 4G27G22G 3G31G13
  -5039280.89449  -3920135.94147  20520687.578    20520686.588    20520694.198
       241.000         206.000
   3321125.87649   2585722.34247  21737843.504    21737842.048    21737851.410
       241.000         199.000
   -880613.55449   -680111.99145  24971273.415    24971272.743    24971287.116
       214.000         151.000
  -9371390.87249  -7286576.87547  23064047.937    23064047.168    23064058.151
       234.000         189.000
   1567888.05849   1223495.87147  21558012.247    21558010.626    21558020.187
       240.000         201.000
  -9722432.69149  -7562711.97845  24079913.095    24079912.781    24079929.640
       212.000         155.000
    -45696.57143                  25004559.317
       204.000          74.000
  -9475142.56049  -7353171.44847  21555599.882    21555599.557    21555607.486
       243.000         196.000
 01 12  3 17  3 30.0000000  0  8G 1G20G 4G27G22G 3G31G13
  -5079639.75549  -3951584.45847  20513007.590    20513006.599    20513014.225
       241.000         206.000
   3376493.25849   2628865.57547  21748379.718    21748378.251    21748387.619
       240.000         198.000
   -870645.79649   -672345.07445  24973170.422    24973169.682    24973184.099
       213.000         151.000
  -9461716.40249  -7356960.40046  23046859.561    23046858.786    23046869.743
       232.000         186.000
   1610054.29049   1256352.49647  21566036.382    21566034.738    21566044.362
       239.000         201.000
  -9818832.79449  -7637828.75245  24061568.603    24061568.334    24061585.213
       213.000         155.000
   -138225.51944                  24981962.582
       200.000         123.000
  -9567979.34949  -7425511.81147  21537933.576    21537933.287    21537941.221
       242.000         197.000
 01 12  3 17  4  0.0000000  0  8G 1G20G 4G27G22G 3G31G13
  -5119690.85149  -3982793.15347  20505386.157    20505385.182    20505392.814
       241.000         207.000
   3432242.20549   2672306.13147  21758988.492    21758987.031    21758996.432
       240.000         197.000
   -860327.14149   -664304.72545  24975134.096    24975133.421    24975147.899
       214.000         150.000
  -9551881.91149  -7427219.23046  23029701.588    23029700.822    23029711.762
       232.000         186.000
   1652702.81749   1289584.93847  21574152.256    21574150.612    21574160.304
       239.000         201.000
  -9915021.52049  -7712780.84045  24043264.441    24043264.143    24043281.016
       214.000         157.000
  -1776118.40449   -230833.66345  24959346.569    24959344.582    24959367.042
       203.000         134.000
  -9660632.11349  -7497708.77147  21520302.345    21520302.073    21520309.982
       242.000         197.000
 01 12  3 17  4 30.0000000  0  8G 1G20G 4G27G22G 3G31G13
  -5159452.52849  -4013776.33647  20497819.837    20497818.831    20497826.476
       241.000         207.000
   3488350.64549   2716026.80547  21769665.690    21769664.224    21769673.645
       239.000         196.000
   -849679.40349   -656007.95445  24977160.478    24977159.750    24977174.271
       212.000         148.000
  -9641906.96349  -7497368.63346  23012570.391    23012569.605    23012580.486
       232.000         186.000
   1695811.54949   1323175.97847  21582355.693    21582354.057    21582363.812
       239.000         200.000
 -10011015.32449  -7787581.07745  24024997.328    24024996.992    24025013.850
       214.000         158.000
  -1895083.02149   -323533.36445  24936708.443    24936708.617    24936727.458
       201.000         136.000
  -9753118.57849  -7569776.16247  21502702.816    21502702.502    21502710.400
       243.000         198.000
 01 12  3 17  5  0.0000000  0  8G 1G20G 4G27G22G 3G31G13
  -5198922.20349  -4044531.97947  20490309.038    20490308.051    20490315.696
       241.000         207.000
   3544817.17349   2760026.51447  21780411.013    21780409.568    21780418.996
       239.000         195.000
   -838703.69549   -647455.61345  24979249.255    24979248.478    24979263.072
       212.000         147.000
  -9731790.50749  -7567407.75646  22995466.095    22995465.366    22995476.174
       233.000         187.000
   1739379.01249   1357124.48547  21590646.405    21590644.788    21590654.595
       237.000         200.000
 -10106809.89749  -7862226.10545  24006768.165    24006767.771    24006784.558
       217.000         158.000
  -2014161.32159   -416321.62255  24914048.657    24914046.826    24914068.178
       201.000         133.000
  -9845436.11549  -7641711.90947  21485135.480    21485135.084    21485142.983
       242.000         198.000
 01 12  3 17  5 30.0000000  0  8G 1G20G 4G27G22G 3G31G13
  -5238085.01049  -4075048.50747  20482856.639    20482855.647    20482863.327
       241.000         207.000
   3601652.75149   2804313.79547  21791226.587    21791225.151    21791234.585
       239.000         195.000
   -827388.59349   -638638.80345  24981402.485    24981401.778    24981416.433
       212.000         149.000
  -9821519.14249  -7637326.17647  22978391.387    22978390.583    22978401.389
       233.000         188.000
   1783416.04249   1391438.89847  21599026.470    21599024.867    21599034.721
       238.000         200.000
 -10202388.88849  -7936703.19645  23988580.054    23988579.613    23988596.369
       215.000         160.000
  -2133336.81249   -509185.57244  24891370.270    24891368.049    24891388.884
       204.000         131.000
  -9937569.47749  -7713504.14147  21467603.041    21467602.686    21467610.599
       242.000         198.000
 01 12  3 17  6  0.0000000  0  8G 1G20G 4G27G22G 3G31G13
  -5276974.27549  -4105351.89147  20475456.288    20475455.317    20475463.022
       241.000         207.000
   3658820.28249   2848859.73847  21802105.352    21802103.919    21802113.346
       239.000         194.000
   -815771.22049   -629586.45945  24983613.275    24983612.622    24983627.318
       211.000         145.000
  -9911127.56549  -7707150.91647  22961339.359    22961338.640    22961349.530
       233.000         190.000
   1827885.64549   1426090.38547  21607488.881    21607487.282    21607497.183
       238.000         199.000
 -10297783.66849  -8011036.76645  23970426.940    23970426.516    23970443.228
       214.000         157.000
  -2252640.94349   -602149.54645  24868667.431    24868665.807    24868686.568
       207.000         137.000
 -10029551.49449  -7785178.44047  21450099.422    21450099.090    21450107.006
       242.000         198.000
 01 12  3 17  6 30.0000000  0  8G 1G20G 4G27G22G 3G31G13
  -5315554.27149  -4135414.28347  20468114.828    20468113.837    20468121.556
       241.000         207.000
   3716351.53049   2893689.09547  21813053.290    21813051.890    21813061.327
       238.000         194.000
   -803819.46749   -620273.56945  24985887.749    24985887.054    24985901.863
       213.000         147.000
 -10000581.53049  -7776855.30447  22944316.947    22944316.129    22944327.097
       234.000         190.000
   1872819.36749   1461103.53347  21616039.622    21616038.001    21616047.989
       238.000         199.000
 -10392956.66749  -8085197.57345  23952316.103    23952315.610    23952332.299
       213.000         159.000
  -2372036.80749   -695185.02645  24845947.222    24845945.757    24845966.366
       204.000         135.000
 -10121346.11049  -7856706.72147  21432631.476    21432631.144    21432639.102
       242.000         197.000
 01 12  3 17  6 59.9990000  0  8G 1G20G 4G27G22G 3G31G13
  -5353814.47749  -4165227.48647  20460834.209    20460833.213    20460840.970
       241.000         207.000
   3774249.95749   2938804.57247  21824071.115    21824069.723    21824079.200
       238.000         193.000
   -791528.05349   -610696.00545  24988226.899    24988226.154    24988240.951
       215.000         148.000
 -10089870.02349  -7846430.75447  22927325.954    22927325.133    22927336.075
       235.000         190.000
   1918221.12849   1496481.39847  21624679.414    21624677.781    21624687.833
       237.000         198.000
 -10487893.80449  -8159174.60645  23934250.074    23934249.587    23934266.253
       212.000         156.000
  -2491509.70149   -788280.44645  24823212.098    24823210.804    24823231.245
       203.000         133.000
 -10212940.51149  -7928078.99347  21415201.623    21415201.290    21415209.285
       241.000         197.000
 01 12  3 17  7 29.9990000  0  8G 1G20G 4G27G22G 3G31G13
  -5391783.99849  -4194814.18647  20453608.864    20453607.912    20453615.704
       241.000         208.000
   3832489.09749   2984185.53247  21835153.761    21835152.393    21835161.880
       238.000         193.000
   -778926.16249   -600876.49545  24990625.131    24990624.355    24990639.085
       217.000         152.000
 -10179027.05749  -7915903.77847  22910359.885    22910359.148    22910369.996
       234.000         189.000
   1964063.55249   1532202.63047  21633402.958    21633401.394    21633411.530
       237.000         198.000
 -10582626.04349  -8232992.00245  23916222.935    23916222.518    23916239.182
       212.000         157.000
  -2611092.33049   -881461.32145  24800456.124    24800454.987    24800475.295
       202.000         132.000
 -10304366.93449  -7999320.37247  21397803.726    21397803.418    21397811.429
       241.000         197.000
 01 12  3 17  7 59.9990000  0  8G 1G20G 4G27G22G 3G31G13
  -5429445.05149  -4224160.52647  20446442.250    20446441.297    20446449.152
       241.000         208.000
   3891079.17349   3029839.94347  21846303.271    21846301.849    21846311.346
       239.000         193.000
   -766001.67549   -590805.61745  24993084.797    24993083.970    24993098.637
       220.000         155.000
 -10268034.90749  -7985260.56547  22893422.292    22893421.482    22893432.371
       232.000         189.000
   2010357.11949   1568275.40947  21642212.396    21642210.875    21642221.063
       237.000         197.000
 -10677132.19949  -8306633.25545  23898238.975    23898238.500    23898255.167
       211.000         156.000
  -2730763.10349   -974710.90545  24777683.396    24777682.292    24777702.557
       210.000         140.000
 -10395605.71949  -8070415.54247  21380441.586    21380441.244    21380449.259
       241.000         197.000
 01 12  3 17  8 29.9990000  0  8G 1G20G 4G27G22G 3G31G13
  -5466801.15649  -4253269.23547  20439333.686    20439332.718    20439340.628
       241.000         207.000
   3950012.91549   3075762.15247  21857518.175    21857516.705    21857526.201
       239.000         193.000
   -752761.90249   -580489.06945  24995604.428    24995603.615    24995618.176
       219.000         155.000
 -10356898.48049  -8054504.89447  22876511.970    22876511.246    22876522.271
       234.000         190.000
   2057094.44249   1604693.97547  21651106.222    21651104.781    21651115.032
       236.000         197.000
 -10771414.17549  -8380099.82045  23880297.650    23880297.168    23880313.816
       214.000         157.000
  -2850523.89449  -1068030.45945  24754893.514    24754892.490    24754912.852
       209.000         139.000
 -10486659.87349  -8141366.84047  21363114.485    21363114.203    21363122.211
       241.000         197.000
 01 12  3 17  8 59.9990000  0  8G 1G20G 4G27G22G 3G31G13
  -5503849.11449  -4282137.83547  20432283.741    20432282.772    20432290.714
       241.000         207.000
   4009289.65549   3121951.62347  21868798.307    21868796.847    21868806.328
       238.000         193.000
   -739207.00049   -569926.97045  24998184.014    24998183.137    24998197.733
       218.000         155.000
 -10445615.84749  -8123635.32147  22859629.780    22859628.939    22859639.971
       236.000         191.000
   2104274.90849   1641457.83547  21660084.452    21660083.018    21660093.333
       237.000         197.000
 -10865466.84149  -8453387.69945  23862400.025    23862399.593    23862416.166
       215.000         158.000
  -2970369.95949  -1161416.54145  24732087.193    24732086.357    24732106.745
       206.000         137.000
 -10577525.85549  -8212171.51547  21345823.289    21345823.001    21345830.992
       241.000         197.000
 01 12  3 17  9 29.9990000  0  9G 1G20G 4G27G22G 3G31G 8G13
  -5540579.57749  -4310759.04047  20425294.229    20425293.237    20425301.223
       241.000         207.000
   4068914.55749   3168412.39147  21880144.698    21880143.221    21880152.751
       239.000         194.000
   -725331.61049   -559115.13445  25000824.518    25000823.648    25000838.284
       217.000         155.000
 -10534179.19949  -8192645.73547  22842776.860    22842775.932    22842786.920
       235.000         189.000
   2151903.76549   1678571.09647  21669147.989    21669146.579    21669156.932
       236.000         196.000
 -10959279.04949  -8526488.18245  23844548.242    23844547.748    23844564.259
       216.000         159.000
  -3090290.48649  -1254860.71745  24709266.862    24709266.088    24709286.385
       207.000         134.000
   -267918.55259   -186797.17955  24945110.877    24945108.137    24945125.020
       216.000         154.000
 -10668194.17749  -8282822.17247  21328569.709    21328569.399    21328577.369
       241.000         197.000
 01 12  3 17  9 59.9990000  0  9G 1G20G 4G27G22G 3G31G 8G13
  -5576995.01749  -4339134.75947  20418364.634    20418363.661    20418371.653
       241.000         207.000
   4128881.24249   3215139.48047  21891556.178    21891554.656    21891564.251
       239.000         194.000
   -711141.65449   -548058.20045  25003524.840    25003524.051    25003538.658
       214.000         150.000
 -10622592.29649  -8261539.06547  22825952.417    22825951.500    22825962.416
       236.000         188.000
   2199974.62549   1716028.77047  21678295.703    21678294.263    21678304.658
       237.000         197.000
 -11052851.56849  -8599401.86745  23826742.193    23826741.552    23826758.013
       216.000         160.000
  -3210286.13049  -1348363.29245  24686432.141    24686431.407    24686451.829
       205.000         140.000
   -384099.82159   -277328.00955  24923002.167    24923001.529    24923017.969
       208.000         149.000
 -10758666.74649  -8353320.28647  21311353.328    21311353.041    21311361.003
       242.000         198.000
 01 12  3 17 10 29.9990000  0  9G 1G20G 4G27G22G 3G31G 8G13
  -5613100.10749  -4367268.65347  20411494.101    20411493.130    20411501.145
       241.000         207.000
   4189181.38949   3262126.41147  21903031.036    21903029.557    21903039.201
       239.000         194.000
   -696645.43549   -536762.61645  25006283.463    25006282.766    25006297.357
       214.000         151.000
 -10710861.22149  -8330320.04847  22809155.397    22809154.487    22809165.349
       235.000         190.000
   2248478.73349   1753824.04347  21687525.851    21687524.390    21687534.806
       236.000         196.000
 -11146187.27849  -8672130.98445  23808981.170    23808980.427    23808996.812
       217.000         160.000
  -3330360.02149  -1441926.93845  24663582.470    24663581.899    24663602.229
       207.000         140.000
   -500191.59849   -367789.07445  24900910.568    24900909.657    24900926.911
       212.000         147.000
 -10848947.19449  -8423668.70147  21294173.586    21294173.243    21294181.226
       242.000         199.000
 01 12  3 17 10 59.9990000  0  9G 1G20G 4G27G22G 3G31G 8G13
  -5648881.18049  -4395150.06247  20404685.217    20404684.261    20404692.313
       241.000         208.000
   4249824.75049   3309380.78547  21914571.224    21914569.772    21914579.438
       238.000         194.000
   -681833.28249   -525220.83345  25009102.287    25009101.559    25009116.197
       213.000         149.000
 -10798973.64349  -8398979.07047  22792388.126    22792387.268    22792398.174
       237.000         192.000
   2297425.81449   1791964.47047  21696840.272    21696838.825    21696849.272
       236.000         196.000
 -11239270.89149  -8744663.60245  23791268.038    23791267.252    23791283.581
       217.000         158.000
  -3450496.89749  -1535539.65645  24640720.975    24640720.348    24640740.600
       209.000         138.000
   -616180.98149   -458170.41245  24878838.611    24878837.799    24878854.864
       217.000         157.000
 -10939021.59049  -8493856.55747  21277033.024    21277032.680    21277040.639
       241.000         199.000
 01 12  3 17 11 29.9990000  0  9G 1G20G 4G27G22G 3G31G 8G13
  -5684355.15049  -4422792.16947  20397934.804    20397933.837    20397941.929
       240.000         208.000
   4310790.24749   3356886.17447  21926172.739    21926171.275    21926181.003
       238.000         193.000
   -666725.55349   -513448.73345  25011977.346    25011976.572    25011991.291
       213.000         149.000
 -10886947.83849  -8467530.37747  22775647.138    22775646.379    22775657.273
       235.000         191.000
   2346794.79249   1830433.63447  21706235.011    21706233.532    21706244.027
       236.000         196.000
 -11332117.61049  -8817011.59045  23773599.865    23773599.063    23773615.410
       217.000         157.000
  -3570712.00949  -1629213.33545  24617844.454    24617843.887    24617864.118
       209.000         140.000
   -732085.96449   -548485.94445  24856782.578    24856781.749    24856798.683
       215.000         150.000
 -11028906.80949  -8563896.99647  21259928.376    21259928.093    21259936.077
       241.000         200.000
 01 12  3 17 11 59.9990000  0  9G 1G20G 4G27G22G 3G31G 8G13
  -5719529.68449  -4450200.94647  20391241.309    20391240.379    20391248.509
       241.000         208.000
   4372066.03449   3404633.34747  21937833.294    21937831.804    21937841.609
       238.000         193.000
   -651333.71349   -501455.27645  25014906.432    25014905.678    25014920.461
       213.000         150.000
 -10974793.02249  -8535981.16647  22758930.819    22758929.973    22758940.846
       235.000         190.000
   2396574.04249   1869222.49047  21715707.942    21715706.339    21715716.850
       237.000         196.000
 -11424733.42449  -8889179.60445  23755975.605    23755974.837    23755991.168
       216.000         157.000
  -3691011.46149  -1722952.78345  24594951.947    24594951.414    24594971.610
       208.000         141.000
   -847915.30549   -638742.62645  24834740.848    24834739.968    24834756.925
       206.000         139.000
 -11118609.95449  -8633795.56247  21242858.476    21242858.179    21242866.158
       242.000         200.000
 01 12  3 17 12 29.9990000  0  9G 1G20G 4G27G22G 3G31G 8G13
  -5754385.55049  -4477361.40647  20384608.510    20384607.571    20384615.736
       241.000         209.000
   4433667.67149   3452634.42047  21949555.822    21949554.336    21949564.249
       237.000         193.000
   -635642.27949   -489228.34245  25017892.536    25017891.743    25017906.612
       214.000         149.000
 -11062491.48349  -8604317.61647  22742242.286    22742241.495    22742252.311
       234.000         190.000
   2446778.61349   1908342.75647  21725261.685    21725260.081    21725270.627
       236.000         195.000
 -11517097.24049  -8961151.23245  23738399.374    23738398.554    23738414.867
       218.000         156.000
  -3811374.57049  -1816741.88545  24572047.367    24572046.805    24572066.853
       208.000         139.000
   -963650.20349   -728925.65045  24812717.228    24812716.344    24812733.287
       216.000         156.000
 -11208111.20549  -8703536.79747  21225826.981    21225826.665    21225834.690
       242.000         201.000
 01 12  3 17 12 59.9990000  0  9G 1G20G 4G27G22G 3G31G 8G13
  -5788944.39749  -4504290.42747  20378032.278    20378031.285    20378039.483
       241.000         209.000
   4495569.47349   3500869.38547  21961335.488    21961334.012    21961344.020
       238.000         193.000
   -619676.43649   -476787.58745  25020930.862    25020930.083    25020944.959
       213.000         148.000
 -11150066.19649  -8672557.62947  22725577.356    22725576.561    22725587.380
       236.000         192.000
   2497383.03149   1947774.58747  21734891.517    21734889.908    21734900.473
       236.000         195.000
 -11609229.11449  -9032942.12745  23720867.269    23720866.389    23720882.633
       218.000         156.000
  -3931821.24849  -1910596.13745  24549126.662    24549126.213    24549146.177
       202.000         136.000
  -1079313.49249   -819052.90545  24790707.252    24790706.344    24790723.345
       208.000         157.000
 -11297431.94349  -8773137.37647  21208829.822    21208829.516    21208837.568
       243.000         201.000
 01 12  3 17 13 29.9990000  0  9G 1G20G 4G27G22G 3G31G 8G13
  -5823201.63349  -4530984.41747  20371513.380    20371512.399    20371520.637
       241.000         209.000
   4557772.06149   3549338.73547  21973172.437    21973170.918    21973180.999
       237.000         193.000
   -603435.63649   -464132.58445  25024021.449    25024020.725    25024035.640
       210.000         148.000
 -11237514.10949  -8740698.83547  22708936.536    22708935.769    22708946.611
       235.000         192.000
   2548387.86349   1987518.43147  21744597.565    21744595.935    21744606.504
       236.000         195.000
 -11701122.70949  -9104547.34245  23703380.417    23703379.595    23703395.751
       218.000         156.000
  -4052345.04449  -2004510.48445  24526191.427    24526191.042    24526210.977
       210.000         141.000
  -1194901.58849   -909121.47545  24768711.402    24768710.563    24768727.709
       207.000         147.000
 -11386567.13549  -8842593.37247  21191868.065    21191867.681    21191875.747
       243.000         202.000
 01 12  3 17 13 59.9990000  0  9G 1G20G 4G27G22G 3G31G 8G13
  -5857156.28449  -4557442.62547  20365052.063    20365051.086    20365059.357
       241.000         208.000
   4620272.17549   3598039.91347  21985065.918    21985064.447    21985074.601
       237.000         193.000
   -586922.56149   -451265.41545  25027163.857    25027163.147    25027178.130
       208.000         145.000
 -11324835.71149  -8808741.60347  22692319.720    22692318.984    22692329.872
       235.000         192.000
   2599789.89249   2027571.76947  21754379.203    21754377.552    21754388.120
       236.000         195.000
 -11792775.37849  -9175964.79745  23685939.444    23685938.622    23685954.657
       219.000         157.000
  -4172943.49549  -2098483.02445  24503242.162    24503241.775    24503261.549
       209.000         141.000
  -1310414.30049   -999131.46945  24746730.078    24746729.192    24746746.299
       214.000         147.000
 -11475515.13249  -8911903.50347  21174941.798    21174941.454    21174949.533
       242.000         202.000
 01 12  3 17 14 29.9990000  0  9G 1G20G 4G27G22G 3G31G 8G13
  -5890804.14849  -4583661.77647  20358649.104    20358648.145    20358656.455
       240.000         208.000
   4683070.11349   3646973.17447  21997016.091    21997014.628    21997024.887
       235.000         192.000
   -570136.65049   -438185.66945  25030358.144    25030357.536    25030372.565
       209.000         146.000
 -11412028.19449  -8876683.77547  22675727.558    22675726.803    22675737.671
       234.000         192.000
   2651589.24349   2067934.69547  21764236.454    21764234.770    21764245.365
       236.000         194.000
 -11884181.23549  -9247189.91245  23668545.303    23668544.607    23668560.586
       219.000         160.000
  -4293610.68549  -2192509.18745  24480279.806    24480279.396    24480298.959
       209.000         143.000
  -1425848.28449  -1089080.28245  24724763.922    24724762.937    24724779.738
       217.000         146.000
 -11564271.31449  -8981064.15647  21158052.022    21158051.701    21158059.824
       242.000         202.000
 01 12  3 17 14 59.9990000  0  9G 1G20G 4G27G22G 3G31G 8G13
  -5924131.85149  -4609631.44647  20352307.046    20352306.113    20352314.457
       240.000         208.000
   4746175.48149   3696145.98447  22009024.766    22009023.308    22009033.664
       236.000         193.000
   -553068.28949   -424885.81445  25033606.260    25033605.694    25033620.830
       210.000         146.000
 -11499079.35549  -8944515.82047  22659162.281    22659161.532    22659172.384
       234.000         193.000
   2703795.42249   2108614.63547  21774171.113    21774169.402    21774180.030
       235.000         194.000
 -11975324.99149  -9318210.77445  23651201.123    23651200.425    23651216.457
       218.000         162.000
  -4414331.30649  -2286577.05345  24457307.248    24457306.798    24457326.158
       209.000         146.000
  -1541191.06449  -1178957.82745  24702814.980    24702813.960    24702830.834
       207.000         154.000
 -11652821.70849  -9050064.46347  21141201.451    21141201.124    21141209.244
       242.000         202.000
 01 12  3 17 15 29.9990000  0  9G 1G20G 4G27G22G 3G31G 8G13
  -5957141.54649  -4635353.32247  20346025.488    20346024.585    20346032.950
       240.000         207.000
   4809582.05849   3745553.50147  22021090.801    22021089.307    22021099.763
       236.000         192.000
   -535723.49249   -411370.57345  25036907.059    25036906.467    25036921.691
       210.000         147.000
 -11585992.96649  -9012240.69647  22642623.110    22642622.399    22642633.265
       235.000         193.000
   2756402.22949   2149606.74147  21784181.960    21784180.272    21784190.926
       235.000         193.000
 -12066207.41249  -9389028.00046  23633906.696    23633906.003    23633922.020
       219.000         163.000
  -4535105.88649  -2380686.88345  24434324.416    24434323.957    24434343.276
       208.000         144.000
  -1656445.64449  -1268766.62746  24680882.701    24680881.715    24680898.747
       217.000         163.000
 -11741167.95649  -9118905.70147  21124389.694    21124389.388    21124397.488
       242.000         201.000
 01 12  3 17 15 59.9990000  0  9G 1G20G 4G27G22G 3G31G 8G13
  -5989830.55849  -4660825.31447  20339805.009    20339804.089    20339812.499
       240.000         208.000
   4873288.53749   3795194.71047  22033213.886    22033212.386    22033222.928
       236.000         192.000
   -518103.29749   -397640.71545  25040260.189    25040259.580    25040274.859
       210.000         147.000
 -11672767.78349  -9079857.41147  22626110.407    22626109.676    22626120.575
       235.000         193.000
   2809408.16049   2190909.85447  21794268.801    21794267.104    21794277.777
       235.000         193.000
 -12156823.93549  -9459638.03545  23616662.839    23616662.159    23616678.175
       218.000         161.000
  -4655930.01349  -2474835.41345  24411332.027    24411331.655    24411350.913
       211.000         143.000
  -1771610.30549  -1358505.44845  24658967.720    24658966.708    24658983.706
       217.000         159.000
 -11829307.14849  -9187585.58747  21107617.408    21107617.058    21107625.124
       242.000         202.000
 01 12  3 17 16 29.9990000  0  9G 1G20G 4G27G22G 3G31G 8G13
  -6022193.72049  -4686043.39547  20333646.478    20333645.603    20333654.045
       240.000         208.000
   4937296.10849   3845070.54147  22045394.220    22045392.753    22045403.378
       236.000         191.000
   -500206.02949   -383694.96745  25043666.034    25043665.416    25043680.869
       210.000         148.000
 -11759399.90049  -9147362.92947  22609624.875    22609624.108    22609635.051
       235.000         192.000
   2862814.42949   2232524.92047  21804431.858    21804430.118    21804440.815
       234.000         192.000
 -12247167.55549  -9530035.41845  23599470.736    23599470.162    23599486.257
       216.000         160.000
  -4776796.68049  -2569017.07845  24388331.776    24388331.293    24388350.435
       211.000         147.000
  -1886680.70949  -1448170.90644  24637070.386    24637069.461    24637086.447
       203.000         127.000
 -11917233.11949  -9256099.32247  21090885.631    21090885.316    21090893.350
       243.000         202.000
 01 12  3 17 16 59.9990000  0  9G 1G20G 4G27G22G 3G31G 8G13
  -6054225.21349  -4711003.03147  20327551.114    20327550.230    20327558.679
       240.000         207.000
   5001606.41949   3895182.27147  22057632.217    22057630.730    22057641.470
       236.000         191.000
   -482029.75249   -369531.83145  25047124.949    25047124.396    25047139.889
       212.000         149.000
 -11845884.85549  -9214753.80647  22593167.361    22593166.561    22593177.427
       236.000         191.000
   2916622.82649   2274453.33547  21814671.339    21814669.643    21814680.395
       234.000         193.000
 -12337230.89449  -9600214.39845  23582332.046    23582331.539    23582347.656
       218.000         162.000
  -4897698.15649  -2663225.93645  24365324.833    24365324.378    24365343.377
       206.000         151.000
  -2001651.72149  -1537758.78045  24615192.216    24615191.213    24615208.218
       216.000         157.000
 -12004939.62749  -9324442.04747  21074195.631    21074195.320    21074203.363
       242.000         202.000
 01 12  3 17 17 29.9990000  0  9G 1G20G 4G27G22G 3G31G 8G13
  -6085929.75149  -4735707.89547  20321517.980    20321517.083    20321525.548
       240.000         207.000
   5066210.86249   3945523.19147  22069926.211    22069924.701    22069935.522
       235.000         190.000
   -463583.24449   -355158.09145  25050635.327    25050634.732    25050650.307
       210.000         146.000
 -11932228.84249  -9282034.82247  22576736.631    22576735.816    22576746.651
       236.000         192.000
   2970824.59149   2316688.25847  21824985.705    21824984.032    21824994.843
       235.000         193.000
 -12427016.91649  -9670177.29845  23565246.114    23565245.672    23565261.811
       217.000         159.000
  -5018637.43249  -2757464.24445  24342310.784    24342310.358    24342329.277
       206.000         146.000
  -2116529.14749  -1627273.75845  24593332.128    24593330.866    24593347.889
       214.000         158.000
 -12092430.86049  -9392617.03047  21057546.572    21057546.287    21057554.310
       242.000         202.000
 01 12  3 17 17 59.9990000  0  9G 1G20G 4G27G22G 3G31G 8G13
  -6117311.76049  -4760161.43747  20315546.199    20315545.312    20315553.798
       240.000         208.000
   5131101.28249   3996086.95647  22082274.571    22082273.097    22082283.966
       235.000         190.000
   -444874.28549   -340579.87445  25054195.710    25054195.084    25054210.668
       213.000         148.000
 -12018437.58749  -9349210.45247  22560331.697    22560330.842    22560341.721
       236.000         194.000
   3025411.53749   2359223.31747  21835373.407    21835371.717    21835382.615
       235.000         193.000
 -12516528.22549  -9739926.13645  23548212.387    23548212.058    23548228.197
       218.000         159.000
  -5139617.21749  -2851734.18045  24319288.971    24319288.472    24319307.360
       209.000         148.000
  -2231318.20749  -1716719.78445  24571488.602    24571487.323    24571504.482
       222.000         160.000
 -12179710.53649  -9460627.16347  21040937.818    21040937.522    21040945.527
       243.000         202.000
 01 12  3 17 18 29.9990000  0  9G 1G20G 4G27G22G 3G31G 8G13
  -6148362.66649  -4784356.97147  20309637.468    20309636.538    20309645.062
       240.000         208.000
   5196282.08149   4046876.97747  22094678.191    22094676.735    22094687.682
       235.000         189.000
   -425898.13349   -325793.44645  25057806.895    25057806.263    25057821.895
       211.000         149.000
 -12104503.96149  -9416275.14447  22543953.882    22543952.984    22543963.882
       236.000         194.000
   3080387.95649   2402061.87247  21845835.251    21845833.511    21845844.456
       233.000         192.000
 -12605754.52549  -9809452.89845  23531233.023    23531232.700    23531248.771
       219.000         160.000
  -5260627.20049  -2946027.62045  24296261.489    24296260.888    24296279.868
       209.000         153.000
  -2346011.21349  -1806091.11945  24549663.387    24549662.157    24549679.215
       214.000         153.000
 -12266769.66349  -9528465.45247  21024371.050    21024370.744    21024378.736
       244.000         203.000
 01 12  3 17 18 59.9990000  0  9G 1G20G 4G27G22G 3G31G 8G13
  -6179081.41549  -4808293.68847  20303791.892    20303790.982    20303799.536
       240.000         208.000
   5261750.35049   4097890.99647  22107136.544    22107135.066    22107146.092
       235.000         189.000
   -406657.56049   -310800.97645  25061468.444    25061467.760    25061483.402
       214.000         152.000
 -12190428.37049  -9483229.21947  22527602.965    22527602.103    22527612.980
       235.000         192.000
   3135750.77449   2445201.52547  21856370.659    21856368.869    21856379.860
       234.000         191.000
 -12694693.11649  -9878755.47145  23514308.407    23514308.116    23514324.128
       219.000         160.000
  -5381664.55849  -3040342.43545  24273228.792    24273228.178    24273247.147
       209.000         152.000
  -2460608.18249  -1895387.45145  24527856.017    24527855.114    24527872.064
       215.000         140.000
 -12353606.67749  -9596130.66447  21007846.548    21007846.226    21007854.192
       243.000         203.000
 01 12  3 17 19 29.9990000  0  9G 1G20G 4G27G22G 3G31G 8G13
  -6209468.38949  -4831971.87547  20298009.475    20298008.560    20298017.127
       240.000         208.000
   5327501.78049   4149125.67647  22119648.767    22119647.286    22119658.389
       234.000         189.000
   -387157.00949   -295605.94045  25065179.408    25065178.696    25065194.407
       212.000         150.000
 -12276212.61949  -9550074.07547  22511278.682    22511277.852    22511288.751
       234.000         193.000
   3191495.73749   2488638.95647  21866978.722    21866976.962    21866987.973
       234.000         191.000
 -12783342.72049  -9947832.85245  23497438.816    23497438.539    23497454.437
       218.000         161.000
  -5502727.84949  -3134677.50645  24250191.242    24250190.503    24250209.480
       212.000         154.000
  -2575109.97749  -1984609.86445  24506067.345    24506066.361    24506083.090
       224.000         161.000
 -12440221.26149  -9663622.55047  20991364.335    20991364.032    20991371.956
       243.000         203.000
